Time,TemperatureF,DewpointF,PressureIn,WindDirection,WindDirectionDegrees,WindSpeedMPH,WindSpeedGustMPH,Humidity,HourlyPrecipIn,Conditions,Clouds,dailyrainin,SoftwareType,DateUTC
2013-07-12 00:01:00,71.2,40.7,29.79,South,180,4.0,4.0,33,0.00,,,0.00,VWS V14.01,2013-07-12 05:01:00,
2013-07-12 00:02:00,71.2,40.7,29.80,South,180,0.0,2.0,33,0.00,,,0.00,VWS V14.01,2013-07-12 05:02:00,
2013-07-12 00:04:00,71.1,40.5,29.80,SE,135,4.7,4.7,33,0.00,,,0.00,VWS V14.01,2013-07-12 05:04:00,
2013-07-12 00:06:00,71.1,40.5,29.79,SW,225,0.0,1.6,33,0.00,,,0.00,VWS V14.01,2013-07-12 05:06:00,
2013-07-12 00:08:00,71.1,39.7,29.80,South,180,4.7,4.7,32,0.00,,,0.00,VWS V14.01,2013-07-12 05:08:00,
2013-07-12 00:10:00,71.1,39.7,29.80,SSW,202,0.0,2.7,32,0.00,,,0.00,VWS V14.01,2013-07-12 05:10:00,
2013-07-12 00:11:00,71.1,39.7,29.79,SSW,202,0.0,2.7,32,0.00,,,0.00,VWS V14.01,2013-07-12 05:11:00,
2013-07-12 00:12:00,71.1,39.7,29.80,WSW,248,8.7,8.7,32,0.00,,,0.00,VWS V14.01,2013-07-12 05:12:00,
2013-07-12 00:14:00,70.9,39.6,29.80,South,180,6.7,6.7,32,0.00,,,0.00,VWS V14.01,2013-07-12 05:14:00,
2013-07-12 00:16:00,70.9,39.6,29.79,South,180,6.7,6.7,32,0.00,,,0.00,VWS V14.01,2013-07-12 05:16:00,
2013-07-12 00:18:00,71.1,39.7,29.80,South,180,6.0,6.0,32,0.00,,,0.00,VWS V14.01,2013-07-12 05:18:00,
2013-07-12 00:20:00,71.1,39.7,29.80,SSW,202,8.1,8.1,32,0.00,,,0.00,VWS V14.01,2013-07-12 05:20:00,
2013-07-12 00:21:00,71.1,39.7,29.79,SSE,158,7.4,7.4,32,0.00,,,0.00,VWS V14.01,2013-07-12 05:21:00,
2013-07-12 00:22:00,71.1,39.7,29.80,SSE,158,3.4,3.4,32,0.00,,,0.00,VWS V14.01,2013-07-12 05:22:00,
2013-07-12 00:24:00,71.1,39.7,29.80,SW,225,6.7,6.7,32,0.00,,,0.00,VWS V14.01,2013-07-12 05:24:00,
2013-07-12 00:26:00,71.1,39.7,29.79,South,180,4.0,4.0,32,0.00,,,0.00,VWS V14.01,2013-07-12 05:26:00,
2013-07-12 00:28:00,71.1,39.7,29.80,SSW,202,7.4,7.4,32,0.00,,,0.00,VWS V14.01,2013-07-12 05:28:00,
2013-07-12 00:30:00,71.1,39.7,29.80,WSW,248,6.0,6.0,32,0.00,,,0.00,VWS V14.01,2013-07-12 05:30:00,
2013-07-12 00:31:00,71.1,39.7,29.79,WSW,248,6.0,6.0,32,0.00,,,0.00,VWS V14.01,2013-07-12 05:31:00,
2013-07-12 00:32:00,71.1,39.7,29.80,SSW,202,3.4,3.4,32,0.00,,,0.00,VWS V14.01,2013-07-12 05:32:00,
2013-07-12 00:34:00,70.9,39.6,29.80,SSW,202,3.4,3.4,32,0.00,,,0.00,VWS V14.01,2013-07-12 05:34:00,
2013-07-12 00:36:00,70.9,39.6,29.79,SSW,202,4.7,4.7,32,0.00,,,0.00,VWS V14.01,2013-07-12 05:36:00,
2013-07-12 00:38:00,70.9,39.6,29.80,SW,225,8.7,8.7,32,0.00,,,0.00,VWS V14.01,2013-07-12 05:38:00,
2013-07-12 00:40:00,70.9,39.6,29.80,SE,135,7.4,7.4,32,0.00,,,0.00,VWS V14.01,2013-07-12 05:40:00,
2013-07-12 00:41:00,70.9,39.6,29.79,SE,135,7.4,7.4,32,0.00,,,0.00,VWS V14.01,2013-07-12 05:41:00,
2013-07-12 00:42:00,71.1,39.7,29.80,SSE,158,9.4,9.4,32,0.00,,,0.00,VWS V14.01,2013-07-12 05:42:00,
2013-07-12 00:44:00,70.9,39.6,29.80,SSE,158,6.7,6.7,32,0.00,,,0.00,VWS V14.01,2013-07-12 05:44:00,
2013-07-12 00:46:00,70.9,39.6,29.79,SSE,158,6.7,6.7,32,0.00,,,0.00,VWS V14.01,2013-07-12 05:46:00,
2013-07-12 00:48:00,70.9,39.6,29.80,NW,315,6.0,6.0,32,0.00,,,0.00,VWS V14.01,2013-07-12 05:48:00,
2013-07-12 00:50:00,70.9,39.6,29.80,South,180,4.7,4.7,32,0.00,,,0.00,VWS V14.01,2013-07-12 05:50:00,
2013-07-12 00:51:00,70.9,39.6,29.79,South,180,4.7,4.7,32,0.00,,,0.00,VWS V14.01,2013-07-12 05:51:00,
2013-07-12 00:52:00,70.9,39.6,29.80,South,180,4.7,4.7,32,0.00,,,0.00,VWS V14.01,2013-07-12 05:52:00,
2013-07-12 00:54:00,70.9,39.6,29.80,South,180,4.7,4.7,32,0.00,,,0.00,VWS V14.01,2013-07-12 05:54:00,
2013-07-12 00:56:00,70.9,39.6,29.79,South,180,4.7,4.7,32,0.00,,,0.00,VWS V14.01,2013-07-12 05:56:00,
2013-07-12 00:58:00,70.9,39.6,29.82,South,180,4.0,4.0,32,0.00,,,0.00,VWS V14.01,2013-07-12 05:58:00,
2013-07-12 01:00:00,70.9,39.6,29.82,South,180,6.0,6.0,32,0.00,,,0.00,VWS V14.01,2013-07-12 06:00:00,
2013-07-12 01:01:00,70.9,39.6,29.82,South,180,6.0,6.0,32,0.00,,,0.00,VWS V14.01,2013-07-12 06:01:00,
2013-07-12 01:02:00,71.1,39.7,29.82,NNE,22,9.4,9.4,32,0.00,,,0.00,VWS V14.01,2013-07-12 06:02:00,
2013-07-12 01:04:00,71.1,39.7,29.82,South,180,6.7,6.7,32,0.00,,,0.00,VWS V14.01,2013-07-12 06:04:00,
2013-07-12 01:06:00,71.1,39.7,29.82,SE,135,4.0,4.0,32,0.00,,,0.00,VWS V14.01,2013-07-12 06:06:00,
2013-07-12 01:08:00,70.9,39.6,29.82,SSE,158,6.0,6.0,32,0.00,,,0.00,VWS V14.01,2013-07-12 06:08:00,
2013-07-12 01:10:00,70.9,39.6,29.82,South,180,7.4,7.4,32,0.00,,,0.00,VWS V14.01,2013-07-12 06:10:00,
2013-07-12 01:11:00,70.9,39.6,29.82,South,180,7.4,7.4,32,0.00,,,0.00,VWS V14.01,2013-07-12 06:11:00,
2013-07-12 01:12:00,70.9,39.6,29.82,SSW,202,8.7,8.7,32,0.00,,,0.00,VWS V14.01,2013-07-12 06:12:00,
2013-07-12 01:14:00,70.9,39.6,29.82,SW,225,10.1,10.1,32,0.00,,,0.00,VWS V14.01,2013-07-12 06:14:00,
2013-07-12 01:16:00,70.9,39.6,29.82,South,180,7.4,7.4,32,0.00,,,0.00,VWS V14.01,2013-07-12 06:16:00,
2013-07-12 01:18:00,70.9,39.6,29.82,SSW,202,4.0,4.0,32,0.00,,,0.00,VWS V14.01,2013-07-12 06:18:00,
2013-07-12 01:20:00,70.7,39.4,29.82,SSW,202,9.4,9.4,32,0.00,,,0.00,VWS V14.01,2013-07-12 06:20:00,
2013-07-12 01:21:00,70.7,39.4,29.82,SSW,202,9.4,9.4,32,0.00,,,0.00,VWS V14.01,2013-07-12 06:21:00,
2013-07-12 01:22:00,70.7,39.4,29.82,South,180,4.0,4.0,32,0.00,,,0.00,VWS V14.01,2013-07-12 06:22:00,
2013-07-12 01:24:00,70.7,39.4,29.82,SW,225,8.1,8.1,32,0.00,,,0.00,VWS V14.01,2013-07-12 06:24:00,
2013-07-12 01:26:00,70.7,39.4,29.82,SSW,202,7.4,7.4,32,0.00,,,0.00,VWS V14.01,2013-07-12 06:26:00,
2013-07-12 01:28:00,70.5,39.3,29.80,SW,225,8.1,8.1,32,0.00,,,0.00,VWS V14.01,2013-07-12 06:28:00,
2013-07-12 01:30:00,70.5,39.3,29.80,SSW,202,6.0,6.0,32,0.00,,,0.00,VWS V14.01,2013-07-12 06:30:00,
2013-07-12 01:31:00,70.5,39.3,29.79,SSW,202,6.0,6.0,32,0.00,,,0.00,VWS V14.01,2013-07-12 06:31:00,
2013-07-12 01:32:00,70.5,39.3,29.80,WNW,292,6.0,6.0,32,0.00,,,0.00,VWS V14.01,2013-07-12 06:32:00,
2013-07-12 01:34:00,70.5,39.3,29.80,South,180,10.7,10.7,32,0.00,,,0.00,VWS V14.01,2013-07-12 06:34:00,
2013-07-12 01:36:00,70.5,39.3,29.79,NW,315,8.1,8.1,32,0.00,,,0.00,VWS V14.01,2013-07-12 06:36:00,
2013-07-12 01:38:00,70.3,39.1,29.80,WSW,248,4.7,4.7,32,0.00,,,0.00,VWS V14.01,2013-07-12 06:38:00,
2013-07-12 01:40:00,70.3,39.1,29.80,SSW,202,4.7,4.7,32,0.00,,,0.00,VWS V14.01,2013-07-12 06:40:00,
2013-07-12 01:41:00,70.3,39.1,29.79,SSW,202,4.7,4.7,32,0.00,,,0.00,VWS V14.01,2013-07-12 06:41:00,
2013-07-12 01:42:00,70.2,39.0,29.80,SSE,158,4.0,4.0,32,0.00,,,0.00,VWS V14.01,2013-07-12 06:42:00,
2013-07-12 01:44:00,70.2,39.0,29.82,SSE,158,12.8,12.8,32,0.00,,,0.00,VWS V14.01,2013-07-12 06:44:00,
2013-07-12 01:46:00,70.2,39.0,29.82,SSW,202,6.0,6.0,32,0.00,,,0.00,VWS V14.01,2013-07-12 06:46:00,
2013-07-12 01:48:00,70.2,39.0,29.82,South,180,10.1,10.1,32,0.00,,,0.00,VWS V14.01,2013-07-12 06:48:00,
2013-07-12 01:50:00,70.2,39.0,29.82,South,180,12.1,12.1,32,0.00,,,0.00,VWS V14.01,2013-07-12 06:50:00,
2013-07-12 01:51:00,70.2,39.0,29.82,South,180,12.1,12.1,32,0.00,,,0.00,VWS V14.01,2013-07-12 06:51:00,
2013-07-12 01:52:00,70.2,39.0,29.82,South,180,12.1,12.1,32,0.00,,,0.00,VWS V14.01,2013-07-12 06:52:00,
2013-07-12 01:54:00,70.2,39.0,29.82,South,180,12.1,12.1,32,0.00,,,0.00,VWS V14.01,2013-07-12 06:54:00,
2013-07-12 01:56:00,70.2,39.0,29.82,South,180,12.1,12.1,32,0.00,,,0.00,VWS V14.01,2013-07-12 06:56:00,
2013-07-12 01:58:00,70.2,39.0,29.82,South,180,12.1,12.1,32,0.00,,,0.00,VWS V14.01,2013-07-12 06:58:00,
2013-07-12 02:00:00,70.0,38.8,29.82,South,180,12.1,12.1,32,0.00,,,0.00,VWS V14.01,2013-07-12 07:00:00,
2013-07-12 02:01:00,70.0,38.8,29.82,South,180,12.1,12.1,32,0.00,,,0.00,VWS V14.01,2013-07-12 07:01:00,
2013-07-12 02:02:00,70.0,38.8,29.82,South,180,12.1,12.1,32,0.00,,,0.00,VWS V14.01,2013-07-12 07:02:00,
2013-07-12 02:04:00,70.0,38.8,29.82,South,180,12.1,12.1,32,0.00,,,0.00,VWS V14.01,2013-07-12 07:04:00,
2013-07-12 02:06:00,70.0,38.8,29.82,South,180,12.1,12.1,32,0.00,,,0.00,VWS V14.01,2013-07-12 07:06:00,
2013-07-12 02:08:00,70.0,38.8,29.82,South,180,12.1,12.1,32,0.00,,,0.00,VWS V14.01,2013-07-12 07:08:00,
2013-07-12 02:10:00,70.0,38.8,29.82,South,180,12.1,12.1,32,0.00,,,0.00,VWS V14.01,2013-07-12 07:10:00,
2013-07-12 02:11:00,70.0,38.8,29.82,South,180,12.1,12.1,32,0.00,,,0.00,VWS V14.01,2013-07-12 07:11:00,
2013-07-12 02:12:00,69.8,38.6,29.82,South,180,12.1,12.1,32,0.00,,,0.00,VWS V14.01,2013-07-12 07:12:00,
2013-07-12 02:14:00,69.8,38.6,29.80,South,180,12.1,12.1,32,0.00,,,0.00,VWS V14.01,2013-07-12 07:14:00,
2013-07-12 02:16:00,69.8,38.6,29.79,South,180,12.1,12.1,32,0.00,,,0.00,VWS V14.01,2013-07-12 07:16:00,
2013-07-12 02:18:00,69.8,38.6,29.80,South,180,12.1,12.1,32,0.00,,,0.00,VWS V14.01,2013-07-12 07:18:00,
2013-07-12 02:20:00,69.8,38.6,29.80,South,180,12.1,12.1,32,0.00,,,0.00,VWS V14.01,2013-07-12 07:20:00,
2013-07-12 02:21:00,69.8,38.6,29.79,South,180,12.1,12.1,32,0.00,,,0.00,VWS V14.01,2013-07-12 07:21:00,
2013-07-12 02:22:00,69.8,38.6,29.80,South,180,12.1,12.1,32,0.00,,,0.00,VWS V14.01,2013-07-12 07:22:00,
2013-07-12 02:24:00,69.8,38.6,29.80,South,180,12.1,12.1,32,0.00,,,0.00,VWS V14.01,2013-07-12 07:24:00,
2013-07-12 02:26:00,69.8,38.6,29.79,South,180,12.1,12.1,32,0.00,,,0.00,VWS V14.01,2013-07-12 07:26:00,
2013-07-12 02:28:00,69.8,38.6,29.80,South,180,12.1,12.1,32,0.00,,,0.00,VWS V14.01,2013-07-12 07:28:00,
2013-07-12 02:30:00,69.8,38.6,29.80,South,180,12.1,12.1,32,0.00,,,0.00,VWS V14.01,2013-07-12 07:30:00,
2013-07-12 02:31:00,69.8,38.6,29.79,South,180,12.1,12.1,32,0.00,,,0.00,VWS V14.01,2013-07-12 07:31:00,
2013-07-12 02:32:00,69.8,38.6,29.80,South,180,12.1,12.1,32,0.00,,,0.00,VWS V14.01,2013-07-12 07:32:00,
2013-07-12 02:34:00,69.8,38.6,29.80,South,180,12.1,12.1,32,0.00,,,0.00,VWS V14.01,2013-07-12 07:34:00,
2013-07-12 02:36:00,69.8,38.6,29.79,South,180,12.1,12.1,32,0.00,,,0.00,VWS V14.01,2013-07-12 07:36:00,
2013-07-12 02:38:00,69.8,38.6,29.80,South,180,12.1,12.1,32,0.00,,,0.00,VWS V14.01,2013-07-12 07:38:00,
2013-07-12 02:40:00,69.8,38.6,29.80,South,180,12.1,12.1,32,0.00,,,0.00,VWS V14.01,2013-07-12 07:40:00,
2013-07-12 02:41:00,69.8,38.6,29.79,South,180,12.1,12.1,32,0.00,,,0.00,VWS V14.01,2013-07-12 07:41:00,
2013-07-12 02:42:00,69.8,38.6,29.80,South,180,12.1,12.1,32,0.00,,,0.00,VWS V14.01,2013-07-12 07:42:00,
2013-07-12 02:44:00,69.8,38.6,29.80,South,180,12.1,12.1,32,0.00,,,0.00,VWS V14.01,2013-07-12 07:44:00,
2013-07-12 02:46:00,69.8,38.6,29.79,South,180,12.1,12.1,32,0.00,,,0.00,VWS V14.01,2013-07-12 07:46:00,
2013-07-12 02:48:00,69.6,39.3,29.80,South,180,12.1,12.1,33,0.00,,,0.00,VWS V14.01,2013-07-12 07:48:00,
2013-07-12 02:50:00,69.6,39.3,29.80,South,180,12.1,12.1,33,0.00,,,0.00,VWS V14.01,2013-07-12 07:50:00,
2013-07-12 02:51:00,69.6,39.3,29.79,South,180,12.1,12.1,33,0.00,,,0.00,VWS V14.01,2013-07-12 07:51:00,
2013-07-12 02:52:00,69.6,39.3,29.80,South,180,12.1,12.1,33,0.00,,,0.00,VWS V14.01,2013-07-12 07:52:00,
2013-07-12 02:54:00,69.6,39.3,29.80,South,180,12.1,12.1,33,0.00,,,0.00,VWS V14.01,2013-07-12 07:54:00,
2013-07-12 02:56:00,69.6,39.3,29.79,South,180,12.1,12.1,33,0.00,,,0.00,VWS V14.01,2013-07-12 07:56:00,
2013-07-12 02:58:00,69.6,39.3,29.82,South,180,12.1,12.1,33,0.00,,,0.00,VWS V14.01,2013-07-12 07:58:00,
2013-07-12 03:00:00,69.6,39.3,29.82,South,180,12.1,12.1,33,0.00,,,0.00,VWS V14.01,2013-07-12 08:00:00,
2013-07-12 03:01:00,69.6,39.3,29.82,South,180,12.1,12.1,33,0.00,,,0.00,VWS V14.01,2013-07-12 08:01:00,
2013-07-12 03:02:00,69.6,39.3,29.82,South,180,12.1,12.1,33,0.00,,,0.00,VWS V14.01,2013-07-12 08:02:00,
2013-07-12 03:04:00,69.6,39.3,29.82,South,180,12.1,12.1,33,0.00,,,0.00,VWS V14.01,2013-07-12 08:04:00,
2013-07-12 03:06:00,69.6,39.3,29.82,South,180,12.1,12.1,33,0.00,,,0.00,VWS V14.01,2013-07-12 08:06:00,
2013-07-12 03:08:00,69.6,39.3,29.82,South,180,12.1,12.1,33,0.00,,,0.00,VWS V14.01,2013-07-12 08:08:00,
2013-07-12 03:10:00,69.6,39.3,29.82,South,180,12.1,12.1,33,0.00,,,0.00,VWS V14.01,2013-07-12 08:10:00,
2013-07-12 03:11:00,69.6,39.3,29.82,South,180,12.1,12.1,33,0.00,,,0.00,VWS V14.01,2013-07-12 08:11:00,
2013-07-12 03:12:00,69.6,39.3,29.82,South,180,12.1,12.1,33,0.00,,,0.00,VWS V14.01,2013-07-12 08:12:00,
2013-07-12 03:14:00,69.6,39.3,29.82,South,180,12.1,12.1,33,0.00,,,0.00,VWS V14.01,2013-07-12 08:14:00,
2013-07-12 03:16:00,69.6,39.3,29.82,South,180,12.1,12.1,33,0.00,,,0.00,VWS V14.01,2013-07-12 08:16:00,
2013-07-12 03:18:00,69.6,39.3,29.82,South,180,12.1,12.1,33,0.00,,,0.00,VWS V14.01,2013-07-12 08:18:00,
2013-07-12 03:20:00,69.6,39.3,29.82,South,180,12.1,12.1,33,0.00,,,0.00,VWS V14.01,2013-07-12 08:20:00,
2013-07-12 03:21:00,69.6,39.3,29.82,South,180,12.1,12.1,33,0.00,,,0.00,VWS V14.01,2013-07-12 08:21:00,
2013-07-12 03:22:00,69.8,39.4,29.82,South,180,12.1,12.1,33,0.00,,,0.00,VWS V14.01,2013-07-12 08:22:00,
2013-07-12 03:24:00,69.6,39.3,29.82,South,180,12.1,12.1,33,0.00,,,0.00,VWS V14.01,2013-07-12 08:24:00,
2013-07-12 03:26:00,69.6,39.3,29.82,South,180,12.1,12.1,33,0.00,,,0.00,VWS V14.01,2013-07-12 08:26:00,
2013-07-12 03:28:00,69.6,39.3,29.80,South,180,12.1,12.1,33,0.00,,,0.00,VWS V14.01,2013-07-12 08:28:00,
2013-07-12 03:30:00,69.6,39.3,29.80,South,180,12.1,12.1,33,0.00,,,0.00,VWS V14.01,2013-07-12 08:30:00,
2013-07-12 03:31:00,69.6,39.3,29.79,South,180,12.1,12.1,33,0.00,,,0.00,VWS V14.01,2013-07-12 08:31:00,
2013-07-12 03:32:00,69.6,39.3,29.80,South,180,12.1,12.1,33,0.00,,,0.00,VWS V14.01,2013-07-12 08:32:00,
2013-07-12 03:34:00,69.6,39.3,29.80,South,180,12.1,12.1,33,0.00,,,0.00,VWS V14.01,2013-07-12 08:34:00,
2013-07-12 03:36:00,69.6,39.3,29.79,South,180,12.1,12.1,33,0.00,,,0.00,VWS V14.01,2013-07-12 08:36:00,
2013-07-12 03:38:00,69.4,39.1,29.80,South,180,12.1,12.1,33,0.00,,,0.00,VWS V14.01,2013-07-12 08:38:00,
2013-07-12 03:40:00,69.4,39.1,29.80,South,180,12.1,12.1,33,0.00,,,0.00,VWS V14.01,2013-07-12 08:40:00,
2013-07-12 03:41:00,69.4,39.1,29.79,South,180,12.1,12.1,33,0.00,,,0.00,VWS V14.01,2013-07-12 08:41:00,
2013-07-12 03:42:00,69.6,39.3,29.80,South,180,12.1,12.1,33,0.00,,,0.00,VWS V14.01,2013-07-12 08:42:00,
2013-07-12 03:44:00,69.6,39.3,29.80,South,180,12.1,12.1,33,0.00,,,0.00,VWS V14.01,2013-07-12 08:44:00,
2013-07-12 03:46:00,69.6,39.3,29.79,South,180,12.1,12.1,33,0.00,,,0.00,VWS V14.01,2013-07-12 08:46:00,
2013-07-12 03:48:00,69.4,39.1,29.80,South,180,12.1,12.1,33,0.00,,,0.00,VWS V14.01,2013-07-12 08:48:00,
2013-07-12 03:50:00,69.4,39.1,29.80,South,180,12.1,12.1,33,0.00,,,0.00,VWS V14.01,2013-07-12 08:50:00,
2013-07-12 03:51:00,69.4,39.1,29.79,South,180,12.1,12.1,33,0.00,,,0.00,VWS V14.01,2013-07-12 08:51:00,
2013-07-12 03:52:00,69.4,39.1,29.80,South,180,12.1,12.1,33,0.00,,,0.00,VWS V14.01,2013-07-12 08:52:00,
2013-07-12 03:54:00,69.4,39.1,29.80,South,180,12.1,12.1,33,0.00,,,0.00,VWS V14.01,2013-07-12 08:54:00,
2013-07-12 03:56:00,69.4,39.1,29.79,South,180,12.1,12.1,33,0.00,,,0.00,VWS V14.01,2013-07-12 08:56:00,
2013-07-12 03:58:00,69.4,39.1,29.80,South,180,12.1,12.1,33,0.00,,,0.00,VWS V14.01,2013-07-12 08:58:00,
2013-07-12 04:00:00,69.4,39.1,29.80,South,180,12.1,12.1,33,0.00,,,0.00,VWS V14.01,2013-07-12 09:00:00,
2013-07-12 04:01:00,69.4,39.1,29.79,South,180,12.1,12.1,33,0.00,,,0.00,VWS V14.01,2013-07-12 09:01:00,
2013-07-12 04:02:00,69.4,39.1,29.80,South,180,12.1,12.1,33,0.00,,,0.00,VWS V14.01,2013-07-12 09:02:00,
2013-07-12 04:04:00,69.3,39.0,29.80,South,180,12.1,12.1,33,0.00,,,0.00,VWS V14.01,2013-07-12 09:04:00,
2013-07-12 04:06:00,69.3,39.0,29.79,South,180,12.1,12.1,33,0.00,,,0.00,VWS V14.01,2013-07-12 09:06:00,
2013-07-12 04:08:00,69.3,39.0,29.80,South,180,12.1,12.1,33,0.00,,,0.00,VWS V14.01,2013-07-12 09:08:00,
2013-07-12 04:10:00,69.3,39.0,29.80,South,180,12.1,12.1,33,0.00,,,0.00,VWS V14.01,2013-07-12 09:10:00,
2013-07-12 04:11:00,69.3,39.0,29.79,South,180,12.1,12.1,33,0.00,,,0.00,VWS V14.01,2013-07-12 09:11:00,
2013-07-12 04:12:00,69.3,39.0,29.80,South,180,12.1,12.1,33,0.00,,,0.00,VWS V14.01,2013-07-12 09:12:00,
2013-07-12 04:14:00,69.3,39.0,29.80,South,180,12.1,12.1,33,0.00,,,0.00,VWS V14.01,2013-07-12 09:14:00,
2013-07-12 04:16:00,69.3,39.0,29.79,South,180,12.1,12.1,33,0.00,,,0.00,VWS V14.01,2013-07-12 09:16:00,
2013-07-12 04:18:00,69.3,39.0,29.80,South,180,12.1,12.1,33,0.00,,,0.00,VWS V14.01,2013-07-12 09:18:00,
2013-07-12 04:20:00,69.3,39.0,29.80,South,180,12.1,12.1,33,0.00,,,0.00,VWS V14.01,2013-07-12 09:20:00,
2013-07-12 04:21:00,69.3,39.0,29.79,South,180,12.1,12.1,33,0.00,,,0.00,VWS V14.01,2013-07-12 09:21:00,
2013-07-12 04:22:00,69.3,39.0,29.80,South,180,12.1,12.1,33,0.00,,,0.00,VWS V14.01,2013-07-12 09:22:00,
2013-07-12 04:24:00,69.3,39.0,29.80,South,180,12.1,12.1,33,0.00,,,0.00,VWS V14.01,2013-07-12 09:24:00,
2013-07-12 04:26:00,69.3,39.0,29.79,South,180,12.1,12.1,33,0.00,,,0.00,VWS V14.01,2013-07-12 09:26:00,
2013-07-12 04:28:00,69.1,38.8,29.80,South,180,12.1,12.1,33,0.00,,,0.00,VWS V14.01,2013-07-12 09:28:00,
2013-07-12 04:30:00,69.1,38.8,29.80,South,180,12.1,12.1,33,0.00,,,0.00,VWS V14.01,2013-07-12 09:30:00,
2013-07-12 04:31:00,69.1,38.8,29.79,South,180,12.1,12.1,33,0.00,,,0.00,VWS V14.01,2013-07-12 09:31:00,
2013-07-12 04:32:00,69.1,38.8,29.80,South,180,12.1,12.1,33,0.00,,,0.00,VWS V14.01,2013-07-12 09:32:00,
2013-07-12 04:34:00,69.1,38.8,29.80,South,180,12.1,12.1,33,0.00,,,0.00,VWS V14.01,2013-07-12 09:34:00,
2013-07-12 04:36:00,68.9,38.6,29.79,South,180,12.1,12.1,33,0.00,,,0.00,VWS V14.01,2013-07-12 09:36:00,
2013-07-12 04:38:00,68.9,39.4,29.80,East,90,6.0,6.0,34,0.00,,,0.00,VWS V14.01,2013-07-12 09:38:00,
2013-07-12 04:40:00,68.9,39.4,29.80,South,180,7.4,7.4,34,0.00,,,0.00,VWS V14.01,2013-07-12 09:40:00,
2013-07-12 04:41:00,68.9,39.4,29.79,South,180,7.4,7.4,34,0.00,,,0.00,VWS V14.01,2013-07-12 09:41:00,
2013-07-12 04:42:00,68.9,39.4,29.80,South,180,12.1,12.1,34,0.00,,,0.00,VWS V14.01,2013-07-12 09:42:00,
2013-07-12 04:44:00,68.7,39.2,29.80,South,180,12.1,12.1,34,0.00,,,0.00,VWS V14.01,2013-07-12 09:44:00,
2013-07-12 04:46:00,68.7,39.2,29.79,SSW,202,8.1,8.1,34,0.00,,,0.00,VWS V14.01,2013-07-12 09:46:00,
2013-07-12 04:48:00,68.7,39.2,29.80,North,0,9.4,9.4,34,0.00,,,0.00,VWS V14.01,2013-07-12 09:48:00,
2013-07-12 04:50:00,68.5,39.1,29.80,SSE,158,14.1,14.1,34,0.00,,,0.00,VWS V14.01,2013-07-12 09:50:00,
2013-07-12 04:51:00,68.5,39.1,29.79,SSW,202,12.1,12.1,34,0.00,,,0.00,VWS V14.01,2013-07-12 09:51:00,
2013-07-12 04:52:00,68.5,39.1,29.80,SW,225,12.1,12.1,34,0.00,,,0.00,VWS V14.01,2013-07-12 09:52:00,
2013-07-12 04:54:00,68.5,39.1,29.80,SSW,202,6.7,6.7,34,0.00,,,0.00,VWS V14.01,2013-07-12 09:54:00,
2013-07-12 04:56:00,68.5,39.1,29.79,SSW,202,4.0,4.0,34,0.00,,,0.00,VWS V14.01,2013-07-12 09:56:00,
2013-07-12 04:58:00,68.5,39.1,29.82,SW,225,4.0,4.0,34,0.00,,,0.00,VWS V14.01,2013-07-12 09:58:00,
2013-07-12 05:00:00,68.5,39.1,29.82,South,180,11.4,11.4,34,0.00,,,0.00,VWS V14.01,2013-07-12 10:00:00,
2013-07-12 05:01:00,68.5,39.1,29.82,South,180,11.4,11.4,34,0.00,,,0.00,VWS V14.01,2013-07-12 10:01:00,
2013-07-12 05:02:00,68.5,39.1,29.82,South,180,8.1,8.1,34,0.00,,,0.00,VWS V14.01,2013-07-12 10:02:00,
2013-07-12 05:04:00,68.5,39.1,29.82,West,270,10.7,10.7,34,0.00,,,0.00,VWS V14.01,2013-07-12 10:04:00,
2013-07-12 05:06:00,68.5,39.1,29.82,SSW,202,10.1,10.1,34,0.00,,,0.00,VWS V14.01,2013-07-12 10:06:00,
2013-07-12 05:08:00,68.4,38.9,29.82,SSW,202,6.7,6.7,34,0.00,,,0.00,VWS V14.01,2013-07-12 10:08:00,
2013-07-12 05:10:00,68.4,38.9,29.82,SSW,202,10.7,10.7,34,0.00,,,0.00,VWS V14.01,2013-07-12 10:10:00,
2013-07-12 05:11:00,68.4,38.9,29.82,SSE,158,14.8,14.8,34,0.00,,,0.00,VWS V14.01,2013-07-12 10:11:00,
2013-07-12 05:12:00,68.4,38.9,29.82,SSW,202,4.7,4.7,34,0.00,,,0.00,VWS V14.01,2013-07-12 10:12:00,
2013-07-12 05:14:00,68.4,38.9,29.82,WNW,292,8.7,8.7,34,0.00,,,0.00,VWS V14.01,2013-07-12 10:14:00,
2013-07-12 05:16:00,68.4,38.9,29.82,WNW,292,6.7,6.7,34,0.00,,,0.00,VWS V14.01,2013-07-12 10:16:00,
2013-07-12 05:18:00,68.2,38.8,29.82,SE,135,6.0,6.0,34,0.00,,,0.00,VWS V14.01,2013-07-12 10:18:00,
2013-07-12 05:20:00,68.2,38.8,29.82,South,180,10.7,10.7,34,0.00,,,0.00,VWS V14.01,2013-07-12 10:20:00,
2013-07-12 05:21:00,68.2,38.8,29.82,South,180,10.7,10.7,34,0.00,,,0.00,VWS V14.01,2013-07-12 10:21:00,
2013-07-12 05:22:00,68.2,38.8,29.82,NW,315,0.0,3.6,34,0.00,,,0.00,VWS V14.01,2013-07-12 10:22:00,
2013-07-12 05:24:00,68.2,38.8,29.82,SW,225,12.1,12.1,34,0.00,,,0.00,VWS V14.01,2013-07-12 10:24:00,
2013-07-12 05:26:00,68.2,38.8,29.82,SE,135,11.4,11.4,34,0.00,,,0.00,VWS V14.01,2013-07-12 10:26:00,
2013-07-12 05:28:00,68.2,38.8,29.82,SW,225,9.4,9.4,34,0.00,,,0.00,VWS V14.01,2013-07-12 10:28:00,
2013-07-12 05:30:00,68.2,38.8,29.82,SSW,202,9.4,9.4,34,0.00,,,0.00,VWS V14.01,2013-07-12 10:30:00,
2013-07-12 05:31:00,68.2,38.8,29.82,SSW,202,9.4,9.4,34,0.00,,,0.00,VWS V14.01,2013-07-12 10:31:00,
2013-07-12 05:32:00,68.2,38.8,29.82,SSW,202,8.1,8.1,34,0.00,,,0.00,VWS V14.01,2013-07-12 10:32:00,
2013-07-12 05:34:00,68.2,38.8,29.82,SSE,158,4.7,4.7,34,0.00,,,0.00,VWS V14.01,2013-07-12 10:34:00,
2013-07-12 05:36:00,68.2,38.8,29.82,SSE,158,4.7,4.7,34,0.00,,,0.00,VWS V14.01,2013-07-12 10:36:00,
2013-07-12 05:38:00,68.2,38.8,29.82,SSW,202,4.7,4.7,34,0.00,,,0.00,VWS V14.01,2013-07-12 10:38:00,
2013-07-12 05:40:00,68.2,38.8,29.82,SE,135,6.7,6.7,34,0.00,,,0.00,VWS V14.01,2013-07-12 10:40:00,
2013-07-12 05:42:00,68.2,38.8,29.82,SSW,202,9.4,9.4,34,0.00,,,0.00,VWS V14.01,2013-07-12 10:42:00,
2013-07-12 05:44:00,68.2,38.8,29.82,South,180,6.0,6.0,34,0.00,,,0.00,VWS V14.01,2013-07-12 10:44:00,
2013-07-12 05:45:00,68.2,38.8,29.82,South,180,6.0,6.0,34,0.00,,,0.00,VWS V14.01,2013-07-12 10:45:00,
2013-07-12 05:46:00,68.2,39.5,29.82,SSW,202,11.4,11.4,35,0.00,,,0.00,VWS V14.01,2013-07-12 10:46:00,
2013-07-12 05:48:00,68.2,38.8,29.82,South,180,17.5,17.5,34,0.00,,,0.00,VWS V14.01,2013-07-12 10:48:00,
2013-07-12 05:50:00,68.4,39.7,29.82,SSW,202,6.0,6.0,35,0.00,,,0.00,VWS V14.01,2013-07-12 10:50:00,
2013-07-12 05:52:00,68.4,39.7,29.82,SSW,202,8.1,8.1,35,0.00,,,0.00,VWS V14.01,2013-07-12 10:52:00,
2013-07-12 05:54:00,68.4,39.7,29.82,SE,135,6.0,6.0,35,0.00,,,0.00,VWS V14.01,2013-07-12 10:54:00,
2013-07-12 05:55:00,68.4,39.7,29.82,SSW,202,7.4,7.4,35,0.00,,,0.00,VWS V14.01,2013-07-12 10:55:00,
2013-07-12 05:56:00,68.4,38.9,29.82,SSW,202,7.4,7.4,34,0.00,,,0.00,VWS V14.01,2013-07-12 10:56:00,
2013-07-12 05:58:00,68.4,39.7,29.82,SE,135,8.1,8.1,35,0.00,,,0.00,VWS V14.01,2013-07-12 10:58:00,
2013-07-12 06:00:00,68.4,38.9,29.82,South,180,4.0,4.0,34,0.00,,,0.00,VWS V14.01,2013-07-12 11:00:00,
2013-07-12 06:02:00,68.4,39.7,29.82,SSW,202,4.7,4.7,35,0.00,,,0.00,VWS V14.01,2013-07-12 11:02:00,
2013-07-12 06:04:00,68.4,39.7,29.82,SSW,202,6.7,6.7,35,0.00,,,0.00,VWS V14.01,2013-07-12 11:04:00,
2013-07-12 06:05:00,68.4,39.7,29.82,East,90,4.0,4.0,35,0.00,,,0.00,VWS V14.01,2013-07-12 11:05:00,
2013-07-12 06:06:00,68.2,39.5,29.82,SSW,202,6.7,6.7,35,0.00,,,0.00,VWS V14.01,2013-07-12 11:06:00,
2013-07-12 06:08:00,68.2,39.5,29.82,SSW,202,6.0,6.0,35,0.00,,,0.00,VWS V14.01,2013-07-12 11:08:00,
2013-07-12 06:10:00,68.2,39.5,29.82,SSW,202,3.4,3.6,35,0.00,,,0.00,VWS V14.01,2013-07-12 11:10:00,
2013-07-12 06:12:00,68.0,39.3,29.82,SSW,202,3.4,3.4,35,0.00,,,0.00,VWS V14.01,2013-07-12 11:12:00,
2013-07-12 06:14:00,68.0,39.3,29.82,SSW,202,8.7,8.7,35,0.00,,,0.00,VWS V14.01,2013-07-12 11:14:00,
2013-07-12 06:15:00,67.8,39.9,29.82,SSW,202,8.7,8.7,36,0.00,,,0.00,VWS V14.01,2013-07-12 11:15:00,
2013-07-12 06:16:00,67.8,39.9,29.82,SSW,202,8.7,8.7,36,0.00,,,0.00,VWS V14.01,2013-07-12 11:16:00,
2013-07-12 06:18:00,67.8,39.9,29.82,SSW,202,4.0,4.0,36,0.00,,,0.00,VWS V14.01,2013-07-12 11:18:00,
2013-07-12 06:20:00,67.8,39.9,29.82,SSW,202,8.1,8.1,36,0.00,,,0.00,VWS V14.01,2013-07-12 11:20:00,
2013-07-12 06:22:00,67.8,39.9,29.82,SSW,202,8.1,8.1,36,0.00,,,0.00,VWS V14.01,2013-07-12 11:22:00,
2013-07-12 06:24:00,67.8,39.9,29.82,SSW,202,6.7,6.7,36,0.00,,,0.00,VWS V14.01,2013-07-12 11:24:00,
2013-07-12 06:25:00,67.8,39.9,29.82,SSW,202,4.0,4.0,36,0.00,,,0.00,VWS V14.01,2013-07-12 11:25:00,
2013-07-12 06:26:00,67.8,39.9,29.82,South,180,0.0,1.3,36,0.00,,,0.00,VWS V14.01,2013-07-12 11:26:00,
2013-07-12 06:28:00,67.8,39.9,29.82,SW,225,3.4,3.4,36,0.00,,,0.00,VWS V14.01,2013-07-12 11:28:00,
2013-07-12 06:30:00,67.6,39.8,29.82,SW,225,3.4,3.4,36,0.00,,,0.00,VWS V14.01,2013-07-12 11:30:00,
2013-07-12 06:32:00,67.6,39.8,29.82,WSW,248,3.4,3.4,36,0.00,,,0.00,VWS V14.01,2013-07-12 11:32:00,
2013-07-12 06:34:00,67.6,40.5,29.82,SSW,202,7.4,7.4,37,0.00,,,0.00,VWS V14.01,2013-07-12 11:34:00,
2013-07-12 06:35:00,67.6,40.5,29.82,SSW,202,7.4,7.4,37,0.00,,,0.00,VWS V14.01,2013-07-12 11:35:00,
2013-07-12 06:36:00,67.5,40.3,29.82,SW,225,3.4,3.4,37,0.00,,,0.00,VWS V14.01,2013-07-12 11:36:00,
2013-07-12 06:38:00,67.5,40.3,29.82,East,90,6.0,6.0,37,0.00,,,0.00,VWS V14.01,2013-07-12 11:38:00,
2013-07-12 06:40:00,67.5,40.3,29.82,NNE,22,0.0,2.0,37,0.00,,,0.00,VWS V14.01,2013-07-12 11:40:00,
2013-07-12 06:42:00,67.5,40.3,29.82,West,270,0.0,0.0,37,0.00,,,0.00,VWS V14.01,2013-07-12 11:42:00,
2013-07-12 06:44:00,67.6,40.5,29.82,WSW,248,0.0,0.0,37,0.00,,,0.00,VWS V14.01,2013-07-12 11:44:00,
2013-07-12 06:45:00,67.6,40.5,29.82,WSW,248,0.0,0.0,37,0.00,,,0.00,VWS V14.01,2013-07-12 11:45:00,
2013-07-12 06:46:00,67.6,40.5,29.82,South,180,0.0,0.0,37,0.00,,,0.00,VWS V14.01,2013-07-12 11:46:00,
2013-07-12 06:48:00,67.6,40.5,29.82,NE,45,0.0,0.0,37,0.00,,,0.00,VWS V14.01,2013-07-12 11:48:00,
2013-07-12 06:50:00,67.8,40.6,29.82,NE,45,0.0,0.0,37,0.00,,,0.00,VWS V14.01,2013-07-12 11:50:00,
2013-07-12 06:52:00,68.0,40.8,29.82,SSW,202,0.0,1.6,37,0.00,,,0.00,VWS V14.01,2013-07-12 11:52:00,
2013-07-12 06:54:00,68.0,40.8,29.82,South,180,2.7,2.7,37,0.00,,,0.00,VWS V14.01,2013-07-12 11:54:00,
2013-07-12 06:55:00,68.2,40.9,29.82,South,180,2.7,2.7,37,0.00,,,0.00,VWS V14.01,2013-07-12 11:55:00,
2013-07-12 06:56:00,68.2,40.9,29.82,South,180,0.0,0.9,37,0.00,,,0.00,VWS V14.01,2013-07-12 11:56:00,
2013-07-12 06:58:00,68.2,40.9,29.82,North,0,0.0,0.0,37,0.00,,,0.00,VWS V14.01,2013-07-12 11:58:00,
2013-07-12 07:00:00,68.4,41.1,29.82,WNW,292,4.0,4.0,37,0.00,,,0.00,VWS V14.01,2013-07-12 12:00:00,
2013-07-12 07:02:00,68.4,41.1,29.82,WNW,292,2.7,2.7,37,0.00,,,0.00,VWS V14.01,2013-07-12 12:02:00,
2013-07-12 07:04:00,68.4,41.1,29.82,WNW,292,2.7,2.7,37,0.00,,,0.00,VWS V14.01,2013-07-12 12:04:00,
2013-07-12 07:05:00,68.4,41.1,29.82,WNW,292,2.7,2.7,37,0.00,,,0.00,VWS V14.01,2013-07-12 12:05:00,
2013-07-12 07:06:00,68.5,41.3,29.82,SW,225,0.0,0.9,37,0.00,,,0.00,VWS V14.01,2013-07-12 12:06:00,
2013-07-12 07:08:00,68.5,41.3,29.82,SSW,202,4.0,4.0,37,0.00,,,0.00,VWS V14.01,2013-07-12 12:08:00,
2013-07-12 07:10:00,68.5,41.3,29.82,SSW,202,3.4,3.4,37,0.00,,,0.00,VWS V14.01,2013-07-12 12:10:00,
2013-07-12 07:12:00,68.7,41.4,29.82,SSW,202,3.4,3.4,37,0.00,,,0.00,VWS V14.01,2013-07-12 12:12:00,
2013-07-12 07:14:00,68.7,41.4,29.85,SSW,202,3.4,3.4,37,0.00,,,0.00,VWS V14.01,2013-07-12 12:14:00,
2013-07-12 07:15:00,68.7,41.4,29.85,SSW,202,3.4,3.4,37,0.00,,,0.00,VWS V14.01,2013-07-12 12:15:00,
2013-07-12 07:16:00,68.7,41.4,29.85,SSW,202,3.4,3.4,37,0.00,,,0.00,VWS V14.01,2013-07-12 12:16:00,
2013-07-12 07:18:00,68.7,41.4,29.85,SSW,202,3.4,3.4,37,0.00,,,0.00,VWS V14.01,2013-07-12 12:18:00,
2013-07-12 07:20:00,68.7,41.4,29.85,SSW,202,3.4,3.4,37,0.00,,,0.00,VWS V14.01,2013-07-12 12:20:00,
2013-07-12 07:22:00,68.9,41.6,29.85,SSW,202,3.4,3.4,37,0.00,,,0.00,VWS V14.01,2013-07-12 12:22:00,
2013-07-12 07:24:00,69.1,41.7,29.85,SSW,202,3.4,3.4,37,0.00,,,0.00,VWS V14.01,2013-07-12 12:24:00,
2013-07-12 07:25:00,69.1,41.7,29.85,SSW,202,3.4,3.4,37,0.00,,,0.00,VWS V14.01,2013-07-12 12:25:00,
2013-07-12 07:26:00,69.1,41.7,29.85,SSW,202,3.4,3.4,37,0.00,,,0.00,VWS V14.01,2013-07-12 12:26:00,
2013-07-12 07:28:00,69.1,41.7,29.82,SSW,202,3.4,3.4,37,0.00,,,0.00,VWS V14.01,2013-07-12 12:28:00,
2013-07-12 07:30:00,69.1,41.7,29.82,SSW,202,3.4,3.4,37,0.00,,,0.00,VWS V14.01,2013-07-12 12:30:00,
2013-07-12 07:32:00,69.3,41.9,29.82,SSW,202,3.4,3.4,37,0.00,,,0.00,VWS V14.01,2013-07-12 12:32:00,
2013-07-12 07:34:00,69.4,42.1,29.82,SSW,202,3.4,3.4,37,0.00,,,0.00,VWS V14.01,2013-07-12 12:34:00,
2013-07-12 07:35:00,69.4,42.1,29.82,SSW,202,3.4,3.4,37,0.00,,,0.00,VWS V14.01,2013-07-12 12:35:00,
2013-07-12 07:36:00,69.4,41.3,29.82,SSW,202,7.4,7.4,36,0.00,,,0.00,VWS V14.01,2013-07-12 12:36:00,
2013-07-12 07:38:00,69.4,41.3,29.82,SSW,202,7.4,7.4,36,0.00,,,0.00,VWS V14.01,2013-07-12 12:38:00,
2013-07-12 07:40:00,69.4,41.3,29.82,NNW,338,0.0,2.5,36,0.00,,,0.00,VWS V14.01,2013-07-12 12:40:00,
2013-07-12 07:42:00,69.6,42.2,29.82,SSW,202,4.0,4.0,37,0.00,,,0.00,VWS V14.01,2013-07-12 12:42:00,
2013-07-12 07:44:00,69.6,42.2,29.80,SSW,202,4.0,4.0,37,0.00,,,0.00,VWS V14.01,2013-07-12 12:44:00,
2013-07-12 07:45:00,69.6,42.2,29.79,SSW,202,4.0,4.0,37,0.00,,,0.00,VWS V14.01,2013-07-12 12:45:00,
2013-07-12 07:46:00,69.8,41.7,29.80,SSW,202,4.0,4.0,36,0.00,,,0.00,VWS V14.01,2013-07-12 12:46:00,
2013-07-12 07:48:00,69.8,41.7,29.80,SSW,202,4.0,4.0,36,0.00,,,0.00,VWS V14.01,2013-07-12 12:48:00,
2013-07-12 07:50:00,69.8,41.7,29.79,SSW,202,4.0,4.0,36,0.00,,,0.00,VWS V14.01,2013-07-12 12:50:00,
2013-07-12 07:52:00,70.0,41.8,29.80,SSW,202,4.0,4.0,36,0.00,,,0.00,VWS V14.01,2013-07-12 12:52:00,
2013-07-12 07:54:00,70.0,41.8,29.80,SSW,202,4.0,4.0,36,0.00,,,0.00,VWS V14.01,2013-07-12 12:54:00,
2013-07-12 07:55:00,70.2,42.0,29.79,SSW,202,4.0,4.0,36,0.00,,,0.00,VWS V14.01,2013-07-12 12:55:00,
2013-07-12 07:56:00,70.2,42.0,29.80,SSW,202,4.0,4.0,36,0.00,,,0.00,VWS V14.01,2013-07-12 12:56:00,
2013-07-12 07:58:00,70.2,42.0,29.82,SSW,202,4.0,4.0,36,0.00,,,0.00,VWS V14.01,2013-07-12 12:58:00,
2013-07-12 08:00:00,70.2,42.0,29.82,SSW,202,4.0,4.0,36,0.00,,,0.00,VWS V14.01,2013-07-12 13:00:00,
2013-07-12 08:02:00,70.3,42.2,29.82,WSW,248,8.1,8.1,36,0.00,,,0.00,VWS V14.01,2013-07-12 13:02:00,
2013-07-12 08:04:00,70.3,41.4,29.82,WSW,248,8.1,8.1,35,0.00,,,0.00,VWS V14.01,2013-07-12 13:04:00,
2013-07-12 08:05:00,70.3,41.4,29.82,WSW,248,8.1,8.1,35,0.00,,,0.00,VWS V14.01,2013-07-12 13:05:00,
2013-07-12 08:06:00,70.5,41.6,29.82,WSW,248,8.1,8.1,35,0.00,,,0.00,VWS V14.01,2013-07-12 13:06:00,
2013-07-12 08:08:00,70.5,41.6,29.82,WSW,248,8.1,8.1,35,0.00,,,0.00,VWS V14.01,2013-07-12 13:08:00,
2013-07-12 08:10:00,70.5,41.6,29.82,WSW,248,8.1,8.1,35,0.00,,,0.00,VWS V14.01,2013-07-12 13:10:00,
2013-07-12 08:12:00,70.7,41.7,29.82,WSW,248,8.1,8.1,35,0.00,,,0.00,VWS V14.01,2013-07-12 13:12:00,
2013-07-12 08:14:00,70.7,41.7,29.82,WSW,248,8.1,8.1,35,0.00,,,0.00,VWS V14.01,2013-07-12 13:14:00,
2013-07-12 08:15:00,70.7,41.7,29.82,WSW,248,8.1,8.1,35,0.00,,,0.00,VWS V14.01,2013-07-12 13:15:00,
2013-07-12 08:16:00,70.7,41.7,29.82,WSW,248,8.1,8.1,35,0.00,,,0.00,VWS V14.01,2013-07-12 13:16:00,
2013-07-12 08:18:00,70.9,41.9,29.82,ENE,68,9.4,9.4,35,0.00,,,0.00,VWS V14.01,2013-07-12 13:18:00,
2013-07-12 08:20:00,70.9,41.9,29.82,SSE,158,4.7,4.7,35,0.00,,,0.00,VWS V14.01,2013-07-12 13:20:00,
2013-07-12 08:22:00,71.1,42.0,29.82,SSW,202,9.4,9.4,35,0.00,,,0.00,VWS V14.01,2013-07-12 13:22:00,
2013-07-12 08:24:00,71.2,42.2,29.82,South,180,3.4,3.4,35,0.00,,,0.00,VWS V14.01,2013-07-12 13:24:00,
2013-07-12 08:25:00,71.4,42.4,29.82,South,180,3.4,3.4,35,0.00,,,0.00,VWS V14.01,2013-07-12 13:25:00,
2013-07-12 08:26:00,71.6,42.5,29.82,South,180,3.4,3.4,35,0.00,,,0.00,VWS V14.01,2013-07-12 13:26:00,
2013-07-12 08:28:00,72.0,42.1,29.82,South,180,3.4,3.4,34,0.00,,,0.00,VWS V14.01,2013-07-12 13:28:00,
2013-07-12 08:30:00,72.0,42.1,29.82,South,180,3.4,3.4,34,0.00,,,0.00,VWS V14.01,2013-07-12 13:30:00,
2013-07-12 08:32:00,72.7,42.7,29.82,South,180,3.4,3.4,34,0.00,,,0.00,VWS V14.01,2013-07-12 13:32:00,
2013-07-12 08:34:00,73.0,43.0,29.82,South,180,3.4,3.4,34,0.00,,,0.00,VWS V14.01,2013-07-12 13:34:00,
2013-07-12 08:35:00,73.0,43.0,29.82,South,180,3.4,3.4,34,0.00,,,0.00,VWS V14.01,2013-07-12 13:35:00,
2013-07-12 08:36:00,73.4,42.6,29.82,South,180,3.4,3.4,33,0.00,,,0.00,VWS V14.01,2013-07-12 13:36:00,
2013-07-12 08:38:00,73.8,42.9,29.82,South,180,3.4,3.4,33,0.00,,,0.00,VWS V14.01,2013-07-12 13:38:00,
2013-07-12 08:40:00,73.9,43.0,29.82,South,180,3.4,3.4,33,0.00,,,0.00,VWS V14.01,2013-07-12 13:40:00,
2013-07-12 08:42:00,74.1,42.4,29.82,South,180,3.4,3.4,32,0.00,,,0.00,VWS V14.01,2013-07-12 13:42:00,
2013-07-12 08:44:00,74.5,42.7,29.82,South,180,3.4,3.4,32,0.00,,,0.00,VWS V14.01,2013-07-12 13:44:00,
2013-07-12 08:45:00,74.5,42.7,29.82,South,180,3.4,3.4,32,0.00,,,0.00,VWS V14.01,2013-07-12 13:45:00,
2013-07-12 08:46:00,74.7,42.9,29.82,South,180,3.4,3.4,32,0.00,,,0.00,VWS V14.01,2013-07-12 13:46:00,
2013-07-12 08:48:00,74.8,43.0,29.82,South,180,3.4,3.4,32,0.00,,,0.00,VWS V14.01,2013-07-12 13:48:00,
2013-07-12 08:50:00,75.2,42.5,29.82,South,180,3.4,3.4,31,0.00,,,0.00,VWS V14.01,2013-07-12 13:50:00,
2013-07-12 08:52:00,75.0,42.4,29.82,South,180,3.4,3.4,31,0.00,,,0.00,VWS V14.01,2013-07-12 13:52:00,
2013-07-12 08:54:00,75.4,42.7,29.82,South,180,3.4,3.4,31,0.00,,,0.00,VWS V14.01,2013-07-12 13:54:00,
2013-07-12 08:55:00,75.6,42.8,29.82,South,180,3.4,3.4,31,0.00,,,0.00,VWS V14.01,2013-07-12 13:55:00,
2013-07-12 08:56:00,75.6,42.8,29.82,South,180,3.4,3.4,31,0.00,,,0.00,VWS V14.01,2013-07-12 13:56:00,
2013-07-12 08:58:00,75.6,42.8,29.85,South,180,3.4,3.4,31,0.00,,,0.00,VWS V14.01,2013-07-12 13:58:00,
2013-07-12 09:00:00,75.7,43.0,29.85,South,180,3.4,3.4,31,0.00,,,0.00,VWS V14.01,2013-07-12 14:00:00,
2013-07-12 09:02:00,75.9,43.2,29.85,South,180,3.4,3.4,31,0.00,,,0.00,VWS V14.01,2013-07-12 14:02:00,
2013-07-12 09:04:00,75.9,43.2,29.85,South,180,3.4,3.4,31,0.00,,,0.00,VWS V14.01,2013-07-12 14:04:00,
2013-07-12 09:05:00,75.9,43.1,29.85,South,180,3.4,3.4,31,0.00,,,0.00,VWS V14.01,2013-07-12 14:05:00,
2013-07-12 09:06:00,76.1,43.3,29.85,South,180,3.4,3.4,31,0.00,,,0.00,VWS V14.01,2013-07-12 14:06:00,
2013-07-12 09:08:00,76.3,43.5,29.85,South,180,3.4,3.4,31,0.00,,,0.00,VWS V14.01,2013-07-12 14:08:00,
2013-07-12 09:10:00,76.3,43.5,29.85,South,180,3.4,3.4,31,0.00,,,0.00,VWS V14.01,2013-07-12 14:10:00,
2013-07-12 09:12:00,76.1,41.6,29.85,South,180,3.4,3.4,29,0.00,,,0.00,VWS V14.01,2013-07-12 14:12:00,
2013-07-12 09:14:00,75.9,42.3,29.82,South,180,3.4,3.4,30,0.00,,,0.00,VWS V14.01,2013-07-12 14:14:00,
2013-07-12 09:15:00,75.9,42.3,29.82,South,180,3.4,3.4,30,0.00,,,0.00,VWS V14.01,2013-07-12 14:15:00,
2013-07-12 09:16:00,76.1,42.5,29.82,South,180,3.4,3.4,30,0.00,,,0.00,VWS V14.01,2013-07-12 14:16:00,
2013-07-12 09:18:00,76.1,42.5,29.82,South,180,3.4,3.4,30,0.00,,,0.00,VWS V14.01,2013-07-12 14:18:00,
2013-07-12 09:20:00,76.1,42.5,29.82,South,180,3.4,3.4,30,0.00,,,0.00,VWS V14.01,2013-07-12 14:20:00,
2013-07-12 09:22:00,76.1,42.5,29.82,South,180,3.4,3.4,30,0.00,,,0.00,VWS V14.01,2013-07-12 14:22:00,
2013-07-12 09:24:00,76.1,42.5,29.82,South,180,3.4,3.4,30,0.00,,,0.00,VWS V14.01,2013-07-12 14:24:00,
2013-07-12 09:25:00,75.9,42.3,29.82,South,180,3.4,3.4,30,0.00,,,0.00,VWS V14.01,2013-07-12 14:25:00,
2013-07-12 09:26:00,76.1,42.5,29.82,South,180,3.4,3.4,30,0.00,,,0.00,VWS V14.01,2013-07-12 14:26:00,
2013-07-12 09:28:00,75.9,42.3,29.82,South,180,3.4,3.4,30,0.00,,,0.00,VWS V14.01,2013-07-12 14:28:00,
2013-07-12 09:30:00,76.1,42.5,29.82,South,180,3.4,3.4,30,0.00,,,0.00,VWS V14.01,2013-07-12 14:30:00,
2013-07-12 09:32:00,76.5,42.8,29.82,South,180,3.4,3.4,30,0.00,,,0.00,VWS V14.01,2013-07-12 14:32:00,
2013-07-12 09:34:00,76.5,42.8,29.82,South,180,3.4,3.4,30,0.00,,,0.00,VWS V14.01,2013-07-12 14:34:00,
2013-07-12 09:35:00,76.6,42.9,29.82,South,180,3.4,3.4,30,0.00,,,0.00,VWS V14.01,2013-07-12 14:35:00,
2013-07-12 09:36:00,77.2,43.4,29.82,South,180,3.4,3.4,30,0.00,,,0.00,VWS V14.01,2013-07-12 14:36:00,
2013-07-12 09:38:00,77.4,42.7,29.82,South,180,3.4,3.4,29,0.00,,,0.00,VWS V14.01,2013-07-12 14:38:00,
2013-07-12 09:40:00,77.5,43.7,29.82,South,180,3.4,3.4,30,0.00,,,0.00,VWS V14.01,2013-07-12 14:40:00,
2013-07-12 09:42:00,77.9,42.2,29.82,South,180,3.4,3.4,28,0.00,,,0.00,VWS V14.01,2013-07-12 14:42:00,
2013-07-12 09:44:00,78.3,42.5,29.82,South,180,3.4,3.4,28,0.00,,,0.00,VWS V14.01,2013-07-12 14:44:00,
2013-07-12 09:45:00,78.3,42.5,29.82,South,180,3.4,3.4,28,0.00,,,0.00,VWS V14.01,2013-07-12 14:45:00,
2013-07-12 09:46:00,78.6,42.8,29.82,South,180,3.4,3.4,28,0.00,,,0.00,VWS V14.01,2013-07-12 14:46:00,
2013-07-12 09:48:00,79.0,42.2,29.82,South,180,3.4,3.4,27,0.00,,,0.00,VWS V14.01,2013-07-12 14:48:00,
2013-07-12 09:50:00,78.8,42.0,29.82,SSW,202,8.1,8.1,27,0.00,,,0.00,VWS V14.01,2013-07-12 14:50:00,
2013-07-12 09:52:00,79.2,41.4,29.82,SSW,202,8.1,8.1,26,0.00,,,0.00,VWS V14.01,2013-07-12 14:52:00,
2013-07-12 09:54:00,79.3,41.5,29.82,SSW,202,8.1,8.1,26,0.00,,,0.00,VWS V14.01,2013-07-12 14:54:00,
2013-07-12 09:55:00,79.3,41.5,29.82,SSW,202,8.1,8.1,26,0.00,,,0.00,VWS V14.01,2013-07-12 14:55:00,
2013-07-12 09:56:00,79.2,41.4,29.82,SSW,202,8.1,8.1,26,0.00,,,0.00,VWS V14.01,2013-07-12 14:56:00,
2013-07-12 09:58:00,79.3,40.5,29.80,SSW,202,8.1,8.1,25,0.00,,,0.00,VWS V14.01,2013-07-12 14:58:00,
2013-07-12 10:00:00,79.5,40.7,29.79,SSW,202,8.1,8.1,25,0.00,,,0.00,VWS V14.01,2013-07-12 15:00:00,
2013-07-12 10:02:00,79.7,40.8,29.80,SSW,202,8.1,8.1,25,0.00,,,0.00,VWS V14.01,2013-07-12 15:02:00,
2013-07-12 10:04:00,79.9,41.0,29.80,WSW,248,8.7,8.7,25,0.00,,,0.00,VWS V14.01,2013-07-12 15:04:00,
2013-07-12 10:05:00,79.9,41.0,29.79,WSW,248,8.7,8.7,25,0.00,,,0.00,VWS V14.01,2013-07-12 15:05:00,
2013-07-12 10:06:00,80.1,41.1,29.80,SW,225,7.4,7.4,25,0.00,,,0.00,VWS V14.01,2013-07-12 15:06:00,
2013-07-12 10:08:00,80.2,41.3,29.80,NW,315,8.7,8.7,25,0.00,,,0.00,VWS V14.01,2013-07-12 15:08:00,
2013-07-12 10:10:00,80.4,41.4,29.79,NW,315,8.7,8.7,25,0.00,,,0.00,VWS V14.01,2013-07-12 15:10:00,
2013-07-12 10:12:00,80.6,41.6,29.80,NW,315,8.7,8.7,25,0.00,,,0.00,VWS V14.01,2013-07-12 15:12:00,
2013-07-12 10:14:00,81.0,40.8,29.80,NW,315,8.7,8.7,24,0.00,,,0.00,VWS V14.01,2013-07-12 15:14:00,
2013-07-12 10:15:00,81.0,40.8,29.79,NW,315,8.7,8.7,24,0.00,,,0.00,VWS V14.01,2013-07-12 15:15:00,
2013-07-12 10:16:00,81.0,40.8,29.80,NW,315,8.7,8.7,24,0.00,,,0.00,VWS V14.01,2013-07-12 15:16:00,
2013-07-12 10:18:00,81.0,40.8,29.80,NW,315,8.7,8.7,24,0.00,,,0.00,VWS V14.01,2013-07-12 15:18:00,
2013-07-12 10:20:00,80.6,39.4,29.79,NW,315,8.7,8.7,23,0.00,,,0.00,VWS V14.01,2013-07-12 15:20:00,
2013-07-12 10:22:00,81.0,40.8,29.80,NW,315,8.7,8.7,24,0.00,,,0.00,VWS V14.01,2013-07-12 15:22:00,
2013-07-12 10:24:00,81.3,40.0,29.80,NW,315,8.7,8.7,23,0.00,,,0.00,VWS V14.01,2013-07-12 15:24:00,
2013-07-12 10:25:00,81.3,40.0,29.79,NW,315,8.7,8.7,23,0.00,,,0.00,VWS V14.01,2013-07-12 15:25:00,
2013-07-12 10:26:00,81.1,41.0,29.80,NW,315,8.7,8.7,24,0.00,,,0.00,VWS V14.01,2013-07-12 15:26:00,
2013-07-12 10:28:00,81.5,41.3,29.76,NW,315,8.7,8.7,24,0.00,,,0.00,VWS V14.01,2013-07-12 15:28:00,
2013-07-12 10:30:00,81.7,40.3,29.76,NW,315,8.7,8.7,23,0.00,,,0.00,VWS V14.01,2013-07-12 15:30:00,
2013-07-12 10:32:00,81.7,40.3,29.76,NW,315,8.7,8.7,23,0.00,,,0.00,VWS V14.01,2013-07-12 15:32:00,
2013-07-12 10:34:00,81.9,40.5,29.76,South,180,7.4,7.4,23,0.00,,,0.00,VWS V14.01,2013-07-12 15:34:00,
2013-07-12 10:35:00,82.0,40.6,29.76,South,180,7.4,7.4,23,0.00,,,0.00,VWS V14.01,2013-07-12 15:35:00,
2013-07-12 10:36:00,82.0,40.6,29.76,South,180,7.4,7.4,23,0.00,,,0.00,VWS V14.01,2013-07-12 15:36:00,
2013-07-12 10:38:00,81.7,40.3,29.76,South,180,7.4,7.4,23,0.00,,,0.00,VWS V14.01,2013-07-12 15:38:00,
2013-07-12 10:40:00,81.7,40.3,29.76,South,180,7.4,7.4,23,0.00,,,0.00,VWS V14.01,2013-07-12 15:40:00,
2013-07-12 10:42:00,82.0,40.6,29.76,West,270,12.8,12.8,23,0.00,,,0.00,VWS V14.01,2013-07-12 15:42:00,
2013-07-12 10:44:00,82.0,40.6,29.80,SE,135,21.5,21.5,23,0.00,,,0.00,VWS V14.01,2013-07-12 15:44:00,
2013-07-12 10:45:00,82.0,40.6,29.79,SE,135,21.5,21.5,23,0.00,,,0.00,VWS V14.01,2013-07-12 15:45:00,
2013-07-12 10:46:00,81.7,39.2,29.80,SE,135,21.5,21.5,22,0.00,,,0.00,VWS V14.01,2013-07-12 15:46:00,
2013-07-12 10:48:00,81.9,40.5,29.80,SE,135,21.5,21.5,23,0.00,,,0.00,VWS V14.01,2013-07-12 15:48:00,
2013-07-12 10:50:00,82.2,40.8,29.79,SE,135,21.5,21.5,23,0.00,,,0.00,VWS V14.01,2013-07-12 15:50:00,
2013-07-12 10:52:00,82.4,40.9,29.80,SE,135,21.5,21.5,23,0.00,,,0.00,VWS V14.01,2013-07-12 15:52:00,
2013-07-12 10:54:00,82.6,39.9,29.80,SE,135,21.5,21.5,22,0.00,,,0.00,VWS V14.01,2013-07-12 15:54:00,
2013-07-12 10:55:00,82.6,39.9,29.79,SE,135,21.5,21.5,22,0.00,,,0.00,VWS V14.01,2013-07-12 15:55:00,
2013-07-12 10:56:00,82.8,40.1,29.80,SE,135,21.5,21.5,22,0.00,,,0.00,VWS V14.01,2013-07-12 15:56:00,
2013-07-12 10:58:00,82.9,40.2,29.80,SE,135,21.5,21.5,22,0.00,,,0.00,VWS V14.01,2013-07-12 15:58:00,
2013-07-12 11:00:00,83.5,41.8,29.79,SE,135,21.5,21.5,23,0.00,,,0.00,VWS V14.01,2013-07-12 16:00:00,
2013-07-12 11:02:00,84.0,41.1,29.80,SE,135,21.5,21.5,22,0.00,,,0.00,VWS V14.01,2013-07-12 16:02:00,
2013-07-12 11:04:00,84.2,41.3,29.80,SE,135,21.5,21.5,22,0.00,,,0.00,VWS V14.01,2013-07-12 16:04:00,
2013-07-12 11:05:00,84.2,41.3,29.79,SE,135,21.5,21.5,22,0.00,,,0.00,VWS V14.01,2013-07-12 16:05:00,
2013-07-12 11:06:00,84.4,41.4,29.80,SE,135,21.5,21.5,22,0.00,,,0.00,VWS V14.01,2013-07-12 16:06:00,
2013-07-12 11:08:00,84.6,40.4,29.80,SE,135,8.7,8.7,21,0.00,,,0.00,VWS V14.01,2013-07-12 16:08:00,
2013-07-12 11:10:00,84.7,41.7,29.79,SW,225,8.1,8.1,22,0.00,,,0.00,VWS V14.01,2013-07-12 16:10:00,
2013-07-12 11:12:00,84.7,40.5,29.80,South,180,11.4,11.4,21,0.00,,,0.00,VWS V14.01,2013-07-12 16:12:00,
2013-07-12 11:14:00,84.6,40.4,29.80,NE,45,4.7,4.7,21,0.00,,,0.00,VWS V14.01,2013-07-12 16:14:00,
2013-07-12 11:15:00,84.6,40.4,29.79,West,270,16.8,16.8,21,0.00,,,0.00,VWS V14.01,2013-07-12 16:15:00,
2013-07-12 11:16:00,84.7,40.5,29.80,West,270,14.1,14.1,21,0.00,,,0.00,VWS V14.01,2013-07-12 16:16:00,
2013-07-12 11:18:00,84.7,40.5,29.80,WSW,248,18.8,18.8,21,0.00,,,0.00,VWS V14.01,2013-07-12 16:18:00,
2013-07-12 11:20:00,84.6,40.4,29.79,South,180,16.8,16.8,21,0.00,,,0.00,VWS V14.01,2013-07-12 16:20:00,
2013-07-12 11:22:00,84.6,40.4,29.80,SE,135,12.8,12.8,21,0.00,,,0.00,VWS V14.01,2013-07-12 16:22:00,
2013-07-12 11:24:00,84.7,40.5,29.80,SE,135,12.8,12.8,21,0.00,,,0.00,VWS V14.01,2013-07-12 16:24:00,
2013-07-12 11:25:00,84.7,40.5,29.79,SE,135,12.8,12.8,21,0.00,,,0.00,VWS V14.01,2013-07-12 16:25:00,
2013-07-12 11:26:00,84.9,40.7,29.80,SE,135,12.8,12.8,21,0.00,,,0.00,VWS V14.01,2013-07-12 16:26:00,
2013-07-12 11:28:00,84.7,40.5,29.76,SE,135,12.8,12.8,21,0.00,,,0.00,VWS V14.01,2013-07-12 16:28:00,
2013-07-12 11:30:00,85.1,40.8,29.76,SE,135,12.8,12.8,21,0.00,,,0.00,VWS V14.01,2013-07-12 16:30:00,
2013-07-12 11:32:00,85.3,41.0,29.76,SE,135,12.8,12.8,21,0.00,,,0.00,VWS V14.01,2013-07-12 16:32:00,
2013-07-12 11:34:00,85.3,41.0,29.76,SE,135,12.8,12.8,21,0.00,,,0.00,VWS V14.01,2013-07-12 16:34:00,
2013-07-12 11:35:00,85.3,41.0,29.76,SE,135,12.8,12.8,21,0.00,,,0.00,VWS V14.01,2013-07-12 16:35:00,
2013-07-12 11:36:00,85.3,41.0,29.76,SE,135,12.8,12.8,21,0.00,,,0.00,VWS V14.01,2013-07-12 16:36:00,
2013-07-12 11:38:00,85.3,41.0,29.76,SE,135,12.8,12.8,21,0.00,,,0.00,VWS V14.01,2013-07-12 16:38:00,
2013-07-12 11:40:00,85.6,41.3,29.76,SE,135,12.8,12.8,21,0.00,,,0.00,VWS V14.01,2013-07-12 16:40:00,
2013-07-12 11:42:00,86.2,41.7,29.76,SE,135,12.8,12.8,21,0.00,,,0.00,VWS V14.01,2013-07-12 16:42:00,
2013-07-12 11:44:00,86.4,40.6,29.76,SE,135,12.8,12.8,20,0.00,,,0.00,VWS V14.01,2013-07-12 16:44:00,
2013-07-12 11:45:00,86.2,40.5,29.76,SE,135,12.8,12.8,20,0.00,,,0.00,VWS V14.01,2013-07-12 16:45:00,
2013-07-12 11:46:00,86.0,40.3,29.76,SSW,202,11.4,11.4,20,0.00,,,0.00,VWS V14.01,2013-07-12 16:46:00,
2013-07-12 11:48:00,85.8,41.4,29.76,South,180,14.8,14.8,21,0.00,,,0.00,VWS V14.01,2013-07-12 16:48:00,
2013-07-12 11:50:00,85.6,41.3,29.76,East,90,22.2,22.2,21,0.00,,,0.00,VWS V14.01,2013-07-12 16:50:00,
2013-07-12 11:52:00,85.1,40.8,29.76,SSW,202,32.2,32.2,21,0.00,,,0.00,VWS V14.01,2013-07-12 16:52:00,
2013-07-12 11:54:00,85.5,41.1,29.76,SSW,202,32.2,32.2,21,0.00,,,0.00,VWS V14.01,2013-07-12 16:54:00,
2013-07-12 11:55:00,85.5,41.1,29.76,SSW,202,32.2,32.2,21,0.00,,,0.00,VWS V14.01,2013-07-12 16:55:00,
2013-07-12 11:56:00,85.5,39.9,29.76,SSW,202,32.2,32.2,20,0.00,,,0.00,VWS V14.01,2013-07-12 16:56:00,
2013-07-12 11:58:00,85.5,41.1,29.76,SSW,202,32.2,32.2,21,0.00,,,0.00,VWS V14.01,2013-07-12 16:58:00,
2013-07-12 12:00:00,85.6,41.3,29.76,South,180,11.4,11.4,21,0.00,,,0.00,VWS V14.01,2013-07-12 17:00:00,
2013-07-12 12:02:00,86.0,41.6,29.76,NE,45,7.4,7.4,21,0.00,,,0.00,VWS V14.01,2013-07-12 17:02:00,
2013-07-12 12:04:00,86.5,42.0,29.76,NE,45,7.4,7.4,21,0.00,,,0.00,VWS V14.01,2013-07-12 17:04:00,
2013-07-12 12:05:00,86.5,42.0,29.76,NE,45,7.4,7.4,21,0.00,,,0.00,VWS V14.01,2013-07-12 17:05:00,
2013-07-12 12:06:00,86.7,42.2,29.76,NE,45,7.4,7.4,21,0.00,,,0.00,VWS V14.01,2013-07-12 17:06:00,
2013-07-12 12:08:00,86.5,40.8,29.76,NE,45,7.4,7.4,20,0.00,,,0.00,VWS V14.01,2013-07-12 17:08:00,
2013-07-12 12:10:00,86.7,40.9,29.76,NE,45,7.4,7.4,20,0.00,,,0.00,VWS V14.01,2013-07-12 17:10:00,
2013-07-12 12:12:00,87.4,42.8,29.76,NE,45,7.4,7.4,21,0.00,,,0.00,VWS V14.01,2013-07-12 17:12:00,
2013-07-12 12:14:00,87.4,41.5,29.76,WSW,248,8.7,8.7,20,0.00,,,0.00,VWS V14.01,2013-07-12 17:14:00,
2013-07-12 12:15:00,87.3,41.3,29.76,WSW,248,8.7,8.7,20,0.00,,,0.00,VWS V14.01,2013-07-12 17:15:00,
2013-07-12 12:16:00,87.1,41.2,29.76,WSW,248,8.7,8.7,20,0.00,,,0.00,VWS V14.01,2013-07-12 17:16:00,
2013-07-12 12:18:00,87.6,41.6,29.76,WSW,248,8.7,8.7,20,0.00,,,0.00,VWS V14.01,2013-07-12 17:18:00,
2013-07-12 12:20:00,87.6,41.6,29.76,WSW,248,8.7,8.7,20,0.00,,,0.00,VWS V14.01,2013-07-12 17:20:00,
2013-07-12 12:22:00,88.2,42.1,29.76,WSW,248,8.7,8.7,20,0.00,,,0.00,VWS V14.01,2013-07-12 17:22:00,
2013-07-12 12:24:00,88.2,42.1,29.76,WSW,248,8.7,8.7,20,0.00,,,0.00,VWS V14.01,2013-07-12 17:24:00,
2013-07-12 12:25:00,88.2,42.1,29.76,WSW,248,8.7,8.7,20,0.00,,,0.00,VWS V14.01,2013-07-12 17:25:00,
2013-07-12 12:26:00,88.3,42.2,29.76,WSW,248,8.7,8.7,20,0.00,,,0.00,VWS V14.01,2013-07-12 17:26:00,
2013-07-12 12:28:00,88.2,42.1,29.76,WSW,248,8.7,8.7,20,0.00,,,0.00,VWS V14.01,2013-07-12 17:28:00,
2013-07-12 12:30:00,88.5,42.4,29.76,WSW,248,8.7,8.7,20,0.00,,,0.00,VWS V14.01,2013-07-12 17:30:00,
2013-07-12 12:31:00,88.3,42.2,29.76,WSW,248,8.7,8.7,20,0.00,,,0.00,VWS V14.01,2013-07-12 17:31:00,
2013-07-12 12:32:00,88.7,42.5,29.76,WSW,248,8.7,8.7,20,0.00,,,0.00,VWS V14.01,2013-07-12 17:32:00,
2013-07-12 12:34:00,88.7,42.5,29.76,WSW,248,8.7,8.7,20,0.00,,,0.00,VWS V14.01,2013-07-12 17:34:00,
2013-07-12 12:36:00,88.5,41.0,29.76,WSW,248,8.7,8.7,19,0.00,,,0.00,VWS V14.01,2013-07-12 17:36:00,
2013-07-12 12:38:00,88.2,40.8,29.76,NNE,22,17.5,17.5,19,0.00,,,0.00,VWS V14.01,2013-07-12 17:38:00,
2013-07-12 12:40:00,87.8,41.8,29.76,NNE,22,17.5,17.5,20,0.00,,,0.00,VWS V14.01,2013-07-12 17:40:00,
2013-07-12 12:41:00,87.8,41.8,29.76,NNE,22,17.5,17.5,20,0.00,,,0.00,VWS V14.01,2013-07-12 17:41:00,
2013-07-12 12:42:00,88.2,42.1,29.76,NNE,22,17.5,17.5,20,0.00,,,0.00,VWS V14.01,2013-07-12 17:42:00,
2013-07-12 12:44:00,88.2,42.1,29.76,NNE,22,17.5,17.5,20,0.00,,,0.00,VWS V14.01,2013-07-12 17:44:00,
2013-07-12 12:46:00,88.5,42.4,29.76,NNE,22,17.5,17.5,20,0.00,,,0.00,VWS V14.01,2013-07-12 17:46:00,
2013-07-12 12:48:00,88.9,42.7,29.76,NNE,22,17.5,17.5,20,0.00,,,0.00,VWS V14.01,2013-07-12 17:48:00,
2013-07-12 12:50:00,88.9,42.7,29.76,NNW,338,8.7,8.7,20,0.00,,,0.00,VWS V14.01,2013-07-12 17:50:00,
2013-07-12 12:51:00,88.9,42.7,29.76,NNW,338,8.7,8.7,20,0.00,,,0.00,VWS V14.01,2013-07-12 17:51:00,
2013-07-12 12:52:00,88.3,40.9,29.76,NNW,338,8.7,8.7,19,0.00,,,0.00,VWS V14.01,2013-07-12 17:52:00,
2013-07-12 12:54:00,88.5,41.0,29.76,NNW,338,8.7,8.7,19,0.00,,,0.00,VWS V14.01,2013-07-12 17:54:00,
2013-07-12 12:56:00,88.5,41.0,29.76,WNW,292,8.7,8.7,19,0.00,,,0.00,VWS V14.01,2013-07-12 17:56:00,
2013-07-12 12:58:00,88.3,40.9,29.76,WNW,292,8.7,8.7,19,0.00,,,0.00,VWS V14.01,2013-07-12 17:58:00,
2013-07-12 13:00:00,88.2,40.8,29.76,WNW,292,8.7,8.7,19,0.00,,,0.00,VWS V14.01,2013-07-12 18:00:00,
2013-07-12 13:01:00,88.2,40.8,29.76,WNW,292,8.7,8.7,19,0.00,,,0.00,VWS V14.01,2013-07-12 18:01:00,
2013-07-12 13:02:00,88.2,40.8,29.76,WNW,292,8.7,8.7,19,0.00,,,0.00,VWS V14.01,2013-07-12 18:02:00,
2013-07-12 13:04:00,89.2,41.6,29.76,WNW,292,8.7,8.7,19,0.00,,,0.00,VWS V14.01,2013-07-12 18:04:00,
2013-07-12 13:06:00,89.6,41.9,29.76,SSE,158,6.7,6.7,19,0.00,,,0.00,VWS V14.01,2013-07-12 18:06:00,
2013-07-12 13:08:00,90.0,42.2,29.76,ENE,68,10.7,10.7,19,0.00,,,0.00,VWS V14.01,2013-07-12 18:08:00,
2013-07-12 13:10:00,89.4,41.8,29.76,ENE,68,10.7,10.7,19,0.00,,,0.00,VWS V14.01,2013-07-12 18:10:00,
2013-07-12 13:11:00,89.4,41.8,29.76,ENE,68,10.7,10.7,19,0.00,,,0.00,VWS V14.01,2013-07-12 18:11:00,
2013-07-12 13:12:00,89.6,41.9,29.76,ENE,68,10.7,10.7,19,0.00,,,0.00,VWS V14.01,2013-07-12 18:12:00,
2013-07-12 13:14:00,89.8,42.1,29.76,SSW,202,8.1,8.1,19,0.00,,,0.00,VWS V14.01,2013-07-12 18:14:00,
2013-07-12 13:16:00,90.1,43.7,29.76,SSW,202,8.1,8.1,20,0.00,,,0.00,VWS V14.01,2013-07-12 18:16:00,
2013-07-12 13:18:00,90.5,42.7,29.76,SSW,202,8.1,8.1,19,0.00,,,0.00,VWS V14.01,2013-07-12 18:18:00,
2013-07-12 13:20:00,90.1,42.4,29.76,SSW,202,8.1,8.1,19,0.00,,,0.00,VWS V14.01,2013-07-12 18:20:00,
2013-07-12 13:22:00,90.1,42.4,29.76,SSW,202,8.1,8.1,19,0.00,,,0.00,VWS V14.01,2013-07-12 18:22:00,
2013-07-12 13:24:00,89.2,41.6,29.76,SSW,202,8.1,8.1,19,0.00,,,0.00,VWS V14.01,2013-07-12 18:24:00,
2013-07-12 13:26:00,89.1,41.5,29.76,SSW,202,8.1,8.1,19,0.00,,,0.00,VWS V14.01,2013-07-12 18:26:00,
2013-07-12 13:27:00,89.1,41.5,29.76,SSW,202,8.1,8.1,19,0.00,,,0.00,VWS V14.01,2013-07-12 18:27:00,
2013-07-12 13:28:00,88.9,41.3,29.76,ENE,68,18.8,18.8,19,0.00,,,0.00,VWS V14.01,2013-07-12 18:28:00,
2013-07-12 13:30:00,88.5,41.0,29.76,ENE,68,18.8,18.8,19,0.00,,,0.00,VWS V14.01,2013-07-12 18:30:00,
2013-07-12 13:32:00,88.5,41.0,29.76,NE,45,16.1,16.1,19,0.00,,,0.00,VWS V14.01,2013-07-12 18:32:00,
2013-07-12 13:34:00,88.9,41.3,29.76,SSW,202,13.4,13.4,19,0.00,,,0.00,VWS V14.01,2013-07-12 18:34:00,
2013-07-12 13:36:00,88.9,41.3,29.76,South,180,10.1,10.1,19,0.00,,,0.00,VWS V14.01,2013-07-12 18:36:00,
2013-07-12 13:37:00,88.9,41.3,29.76,South,180,10.1,10.1,19,0.00,,,0.00,VWS V14.01,2013-07-12 18:37:00,
2013-07-12 13:38:00,89.2,41.6,29.76,NE,45,8.1,8.1,19,0.00,,,0.00,VWS V14.01,2013-07-12 18:38:00,
2013-07-12 13:40:00,89.1,41.5,29.76,WSW,248,11.4,11.4,19,0.00,,,0.00,VWS V14.01,2013-07-12 18:40:00,
2013-07-12 13:42:00,88.9,41.3,29.76,WSW,248,11.4,11.4,19,0.00,,,0.00,VWS V14.01,2013-07-12 18:42:00,
2013-07-12 13:44:00,88.7,41.2,29.76,WNW,292,7.4,7.4,19,0.00,,,0.00,VWS V14.01,2013-07-12 18:44:00,
2013-07-12 13:46:00,89.2,41.6,29.76,NW,315,10.7,10.7,19,0.00,,,0.00,VWS V14.01,2013-07-12 18:46:00,
2013-07-12 13:47:00,89.2,41.6,29.76,East,90,10.7,10.7,19,0.00,,,0.00,VWS V14.01,2013-07-12 18:47:00,
2013-07-12 13:48:00,89.4,41.8,29.76,SSW,202,16.8,16.8,19,0.00,,,0.00,VWS V14.01,2013-07-12 18:48:00,
2013-07-12 13:50:00,89.2,41.6,29.76,South,180,8.7,8.7,19,0.00,,,0.00,VWS V14.01,2013-07-12 18:50:00,
2013-07-12 13:52:00,89.2,41.6,29.76,SW,225,8.1,8.1,19,0.00,,,0.00,VWS V14.01,2013-07-12 18:52:00,
2013-07-12 13:54:00,89.8,42.1,29.76,SSW,202,11.4,11.4,19,0.00,,,0.00,VWS V14.01,2013-07-12 18:54:00,
2013-07-12 13:56:00,89.8,42.1,29.76,SE,135,7.4,7.4,19,0.00,,,0.00,VWS V14.01,2013-07-12 18:56:00,
2013-07-12 13:57:00,89.8,42.1,29.76,SE,135,7.4,7.4,19,0.00,,,0.00,VWS V14.01,2013-07-12 18:57:00,
2013-07-12 13:58:00,89.8,42.1,29.76,West,270,16.8,16.8,19,0.00,,,0.00,VWS V14.01,2013-07-12 18:58:00,
2013-07-12 14:00:00,89.8,40.7,29.76,SSE,158,14.8,14.8,18,0.00,,,0.00,VWS V14.01,2013-07-12 19:00:00,
2013-07-12 14:02:00,89.8,42.1,29.76,SSW,202,12.8,12.8,19,0.00,,,0.00,VWS V14.01,2013-07-12 19:02:00,
2013-07-12 14:04:00,89.6,41.9,29.76,SSW,202,4.7,4.7,19,0.00,,,0.00,VWS V14.01,2013-07-12 19:04:00,
2013-07-12 14:06:00,90.1,42.4,29.76,South,180,14.1,14.1,19,0.00,,,0.00,VWS V14.01,2013-07-12 19:06:00,
2013-07-12 14:07:00,90.1,42.4,29.76,South,180,14.1,14.1,19,0.00,,,0.00,VWS V14.01,2013-07-12 19:07:00,
2013-07-12 14:08:00,89.8,40.7,29.76,SSW,202,7.4,7.4,18,0.00,,,0.00,VWS V14.01,2013-07-12 19:08:00,
2013-07-12 14:10:00,89.8,42.1,29.76,SW,225,14.8,14.8,19,0.00,,,0.00,VWS V14.01,2013-07-12 19:10:00,
2013-07-12 14:12:00,90.0,40.8,29.76,WSW,248,4.7,5.6,18,0.00,,,0.00,VWS V14.01,2013-07-12 19:12:00,
2013-07-12 14:14:00,90.1,41.0,29.76,SW,225,10.7,10.7,18,0.00,,,0.00,VWS V14.01,2013-07-12 19:14:00,
2013-07-12 14:16:00,90.1,41.0,29.76,SSW,202,10.7,10.7,18,0.00,,,0.00,VWS V14.01,2013-07-12 19:16:00,
2013-07-12 14:17:00,90.1,41.0,29.76,SSW,202,10.1,10.1,18,0.00,,,0.00,VWS V14.01,2013-07-12 19:17:00,
2013-07-12 14:18:00,90.3,41.1,29.76,South,180,11.4,11.4,18,0.00,,,0.00,VWS V14.01,2013-07-12 19:18:00,
2013-07-12 14:20:00,90.3,41.1,29.76,SSW,202,10.7,10.7,18,0.00,,,0.00,VWS V14.01,2013-07-12 19:20:00,
2013-07-12 14:22:00,90.7,42.8,29.76,NW,315,7.4,7.4,19,0.00,,,0.00,VWS V14.01,2013-07-12 19:22:00,
2013-07-12 14:24:00,90.7,42.8,29.76,West,270,8.7,8.7,19,0.00,,,0.00,VWS V14.01,2013-07-12 19:24:00,
2013-07-12 14:26:00,90.7,41.4,29.76,South,180,12.8,12.8,18,0.00,,,0.00,VWS V14.01,2013-07-12 19:26:00,
2013-07-12 14:27:00,90.7,41.4,29.76,SE,135,18.1,18.1,18,0.00,,,0.00,VWS V14.01,2013-07-12 19:27:00,
2013-07-12 14:28:00,90.1,41.0,29.76,SSW,202,11.4,11.4,18,0.00,,,0.00,VWS V14.01,2013-07-12 19:28:00,
2013-07-12 14:30:00,90.5,41.3,29.76,South,180,10.1,10.1,18,0.00,,,0.00,VWS V14.01,2013-07-12 19:30:00,
2013-07-12 14:32:00,90.1,41.0,29.76,South,180,10.1,10.1,18,0.00,,,0.00,VWS V14.01,2013-07-12 19:32:00,
2013-07-12 14:34:00,90.5,41.3,29.76,South,180,10.1,10.1,18,0.00,,,0.00,VWS V14.01,2013-07-12 19:34:00,
2013-07-12 14:36:00,91.2,43.2,29.76,South,180,10.1,10.1,19,0.00,,,0.00,VWS V14.01,2013-07-12 19:36:00,
2013-07-12 14:37:00,91.2,43.2,29.76,South,180,10.1,10.1,19,0.00,,,0.00,VWS V14.01,2013-07-12 19:37:00,
2013-07-12 14:38:00,91.6,42.1,29.76,SSW,202,10.7,10.7,18,0.00,,,0.00,VWS V14.01,2013-07-12 19:38:00,
2013-07-12 14:40:00,91.8,42.3,29.76,SSW,202,6.0,6.0,18,0.00,,,0.00,VWS V14.01,2013-07-12 19:40:00,
2013-07-12 14:42:00,91.8,42.3,29.76,SSW,202,6.0,6.0,18,0.00,,,0.00,VWS V14.01,2013-07-12 19:42:00,
2013-07-12 14:44:00,91.9,42.4,29.76,West,270,8.7,8.7,18,0.00,,,0.00,VWS V14.01,2013-07-12 19:44:00,
2013-07-12 14:46:00,91.6,42.1,29.76,SW,225,14.8,14.8,18,0.00,,,0.00,VWS V14.01,2013-07-12 19:46:00,
2013-07-12 14:47:00,91.6,42.1,29.76,SW,225,14.8,14.8,18,0.00,,,0.00,VWS V14.01,2013-07-12 19:47:00,
2013-07-12 14:48:00,91.6,42.1,29.76,SW,225,14.8,14.8,18,0.00,,,0.00,VWS V14.01,2013-07-12 19:48:00,
2013-07-12 14:50:00,91.2,41.8,29.76,SW,225,14.8,14.8,18,0.00,,,0.00,VWS V14.01,2013-07-12 19:50:00,
2013-07-12 14:52:00,91.0,41.7,29.76,East,90,8.7,8.7,18,0.00,,,0.00,VWS V14.01,2013-07-12 19:52:00,
2013-07-12 14:54:00,91.2,41.8,29.76,East,90,8.7,8.7,18,0.00,,,0.00,VWS V14.01,2013-07-12 19:54:00,
2013-07-12 14:56:00,91.2,41.8,29.76,East,90,8.7,8.7,18,0.00,,,0.00,VWS V14.01,2013-07-12 19:56:00,
2013-07-12 14:58:00,91.2,41.8,29.76,East,90,8.7,8.7,18,0.00,,,0.00,VWS V14.01,2013-07-12 19:58:00,
2013-07-12 15:00:00,91.4,42.0,29.76,SSW,202,12.1,12.1,18,0.00,,,0.00,VWS V14.01,2013-07-12 20:00:00,
2013-07-12 15:02:00,91.2,41.8,29.76,SSW,202,12.1,12.1,18,0.00,,,0.00,VWS V14.01,2013-07-12 20:02:00,
2013-07-12 15:03:00,91.2,41.8,29.76,SSW,202,12.1,12.1,18,0.00,,,0.00,VWS V14.01,2013-07-12 20:03:00,
2013-07-12 15:04:00,91.0,41.7,29.76,SSW,202,12.8,12.8,18,0.00,,,0.00,VWS V14.01,2013-07-12 20:04:00,
2013-07-12 15:06:00,91.0,41.7,29.76,SW,225,10.1,10.1,18,0.00,,,0.00,VWS V14.01,2013-07-12 20:06:00,
2013-07-12 15:08:00,91.2,41.8,29.76,South,180,8.7,8.7,18,0.00,,,0.00,VWS V14.01,2013-07-12 20:08:00,
2013-07-12 15:10:00,91.4,42.0,29.76,North,0,8.1,8.1,18,0.00,,,0.00,VWS V14.01,2013-07-12 20:10:00,
2013-07-12 15:12:00,91.6,42.1,29.76,WSW,248,3.4,6.0,18,0.00,,,0.00,VWS V14.01,2013-07-12 20:12:00,
2013-07-12 15:13:00,91.6,42.1,29.76,WSW,248,3.4,6.0,18,0.00,,,0.00,VWS V14.01,2013-07-12 20:13:00,
2013-07-12 15:14:00,91.8,42.3,29.76,SSW,202,17.5,17.5,18,0.00,,,0.00,VWS V14.01,2013-07-12 20:14:00,
2013-07-12 15:16:00,91.8,42.3,29.76,South,180,12.1,12.1,18,0.00,,,0.00,VWS V14.01,2013-07-12 20:16:00,
2013-07-12 15:18:00,91.6,40.7,29.76,South,180,10.1,10.1,17,0.00,,,0.00,VWS V14.01,2013-07-12 20:18:00,
2013-07-12 15:20:00,91.2,41.8,29.76,ENE,68,10.7,10.7,18,0.00,,,0.00,VWS V14.01,2013-07-12 20:20:00,
2013-07-12 15:22:00,91.2,41.8,29.76,SE,135,9.4,9.4,18,0.00,,,0.00,VWS V14.01,2013-07-12 20:22:00,
2013-07-12 15:23:00,91.2,41.8,29.76,SE,135,9.4,9.4,18,0.00,,,0.00,VWS V14.01,2013-07-12 20:23:00,
2013-07-12 15:24:00,91.0,41.7,29.76,ESE,112,22.2,22.2,18,0.00,,,0.00,VWS V14.01,2013-07-12 20:24:00,
2013-07-12 15:26:00,91.2,41.8,29.76,South,180,11.4,11.4,18,0.00,,,0.00,VWS V14.01,2013-07-12 20:26:00,
2013-07-12 15:28:00,91.4,42.0,29.76,SW,225,8.7,8.7,18,0.00,,,0.00,VWS V14.01,2013-07-12 20:28:00,
2013-07-12 15:30:00,91.4,40.5,29.74,SW,225,9.4,9.4,17,0.00,,,0.00,VWS V14.01,2013-07-12 20:30:00,
2013-07-12 15:32:00,91.2,41.8,29.74,SW,225,9.4,9.4,18,0.00,,,0.00,VWS V14.01,2013-07-12 20:32:00,
2013-07-12 15:33:00,91.4,42.0,29.74,SW,225,9.4,9.4,18,0.00,,,0.00,VWS V14.01,2013-07-12 20:33:00,
2013-07-12 15:34:00,90.9,41.5,29.74,SW,225,9.4,9.4,18,0.00,,,0.00,VWS V14.01,2013-07-12 20:34:00,
2013-07-12 15:36:00,90.9,41.5,29.74,SW,225,9.4,9.4,18,0.00,,,0.00,VWS V14.01,2013-07-12 20:36:00,
2013-07-12 15:38:00,91.2,41.8,29.74,SW,225,9.4,9.4,18,0.00,,,0.00,VWS V14.01,2013-07-12 20:38:00,
2013-07-12 15:40:00,90.7,41.4,29.74,WSW,248,14.8,14.8,18,0.00,,,0.00,VWS V14.01,2013-07-12 20:40:00,
2013-07-12 15:42:00,90.7,41.4,29.74,WSW,248,7.4,7.4,18,0.00,,,0.00,VWS V14.01,2013-07-12 20:42:00,
2013-07-12 15:43:00,90.7,41.4,29.74,WSW,248,7.4,7.4,18,0.00,,,0.00,VWS V14.01,2013-07-12 20:43:00,
2013-07-12 15:44:00,91.0,41.7,29.74,NNE,22,8.1,8.1,18,0.00,,,0.00,VWS V14.01,2013-07-12 20:44:00,
2013-07-12 15:46:00,91.0,41.7,29.74,SSW,202,7.4,8.1,18,0.00,,,0.00,VWS V14.01,2013-07-12 20:46:00,
2013-07-12 15:48:00,91.2,41.8,29.74,SE,135,10.1,10.1,18,0.00,,,0.00,VWS V14.01,2013-07-12 20:48:00,
2013-07-12 15:50:00,91.8,42.3,29.74,South,180,12.1,12.1,18,0.00,,,0.00,VWS V14.01,2013-07-12 20:50:00,
2013-07-12 15:52:00,91.6,40.7,29.74,South,180,10.7,10.7,17,0.00,,,0.00,VWS V14.01,2013-07-12 20:52:00,
2013-07-12 15:53:00,91.6,40.7,29.74,South,180,10.7,10.7,17,0.00,,,0.00,VWS V14.01,2013-07-12 20:53:00,
2013-07-12 15:54:00,91.4,40.5,29.74,South,180,10.7,10.7,17,0.00,,,0.00,VWS V14.01,2013-07-12 20:54:00,
2013-07-12 15:56:00,91.6,42.1,29.74,South,180,10.7,10.7,18,0.00,,,0.00,VWS V14.01,2013-07-12 20:56:00,
2013-07-12 15:58:00,91.2,41.8,29.74,SW,225,14.8,14.8,18,0.00,,,0.00,VWS V14.01,2013-07-12 20:58:00,
2013-07-12 16:00:00,91.9,40.9,29.74,South,180,3.4,3.4,17,0.00,,,0.00,VWS V14.01,2013-07-12 21:00:00,
2013-07-12 16:02:00,92.5,41.4,29.74,South,180,3.4,3.4,17,0.00,,,0.00,VWS V14.01,2013-07-12 21:02:00,
2013-07-12 16:03:00,92.3,41.2,29.74,South,180,3.4,3.4,17,0.00,,,0.00,VWS V14.01,2013-07-12 21:03:00,
2013-07-12 16:04:00,92.3,41.2,29.74,South,180,3.4,3.4,17,0.00,,,0.00,VWS V14.01,2013-07-12 21:04:00,
2013-07-12 16:06:00,92.3,41.2,29.74,South,180,3.4,3.4,17,0.00,,,0.00,VWS V14.01,2013-07-12 21:06:00,
2013-07-12 16:08:00,92.3,41.2,29.74,South,180,3.4,3.4,17,0.00,,,0.00,VWS V14.01,2013-07-12 21:08:00,
2013-07-12 16:10:00,91.8,40.8,29.74,South,180,3.4,3.4,17,0.00,,,0.00,VWS V14.01,2013-07-12 21:10:00,
2013-07-12 16:12:00,91.9,40.9,29.74,South,180,3.4,3.4,17,0.00,,,0.00,VWS V14.01,2013-07-12 21:12:00,
2013-07-12 16:13:00,91.9,40.9,29.74,South,180,3.4,3.4,17,0.00,,,0.00,VWS V14.01,2013-07-12 21:13:00,
2013-07-12 16:14:00,91.8,40.8,29.74,South,180,3.4,3.4,17,0.00,,,0.00,VWS V14.01,2013-07-12 21:14:00,
2013-07-12 16:16:00,91.8,40.8,29.74,South,180,3.4,3.4,17,0.00,,,0.00,VWS V14.01,2013-07-12 21:16:00,
2013-07-12 16:18:00,91.6,40.7,29.74,South,180,3.4,3.4,17,0.00,,,0.00,VWS V14.01,2013-07-12 21:18:00,
2013-07-12 16:20:00,91.8,42.3,29.74,South,180,3.4,3.4,18,0.00,,,0.00,VWS V14.01,2013-07-12 21:20:00,
2013-07-12 16:22:00,91.6,40.7,29.74,South,180,3.4,3.4,17,0.00,,,0.00,VWS V14.01,2013-07-12 21:22:00,
2013-07-12 16:23:00,91.6,40.7,29.74,South,180,3.4,3.4,17,0.00,,,0.00,VWS V14.01,2013-07-12 21:23:00,
2013-07-12 16:24:00,91.6,42.1,29.74,South,180,3.4,3.4,18,0.00,,,0.00,VWS V14.01,2013-07-12 21:24:00,
2013-07-12 16:26:00,91.6,40.7,29.74,South,180,3.4,3.4,17,0.00,,,0.00,VWS V14.01,2013-07-12 21:26:00,
2013-07-12 16:28:00,91.8,40.8,29.74,South,180,3.4,3.4,17,0.00,,,0.00,VWS V14.01,2013-07-12 21:28:00,
2013-07-12 16:30:00,91.8,40.8,29.74,South,180,3.4,3.4,17,0.00,,,0.00,VWS V14.01,2013-07-12 21:30:00,
2013-07-12 16:32:00,91.6,40.7,29.74,South,180,3.4,3.4,17,0.00,,,0.00,VWS V14.01,2013-07-12 21:32:00,
2013-07-12 16:33:00,91.6,40.7,29.74,South,180,3.4,3.4,17,0.00,,,0.00,VWS V14.01,2013-07-12 21:33:00,
2013-07-12 16:34:00,91.9,42.4,29.74,South,180,3.4,3.4,18,0.00,,,0.00,VWS V14.01,2013-07-12 21:34:00,
2013-07-12 16:36:00,91.9,40.9,29.74,South,180,3.4,3.4,17,0.00,,,0.00,VWS V14.01,2013-07-12 21:36:00,
2013-07-12 16:38:00,91.9,40.9,29.74,South,180,3.4,3.4,17,0.00,,,0.00,VWS V14.01,2013-07-12 21:38:00,
2013-07-12 16:40:00,91.4,40.5,29.74,South,180,3.4,3.4,17,0.00,,,0.00,VWS V14.01,2013-07-12 21:40:00,
2013-07-12 16:42:00,91.2,41.8,29.74,South,180,3.4,3.4,18,0.00,,,0.00,VWS V14.01,2013-07-12 21:42:00,
2013-07-12 16:43:00,91.2,41.8,29.74,West,270,9.4,9.4,18,0.00,,,0.00,VWS V14.01,2013-07-12 21:43:00,
2013-07-12 16:44:00,91.2,41.8,29.74,NE,45,17.5,17.5,18,0.00,,,0.00,VWS V14.01,2013-07-12 21:44:00,
2013-07-12 16:46:00,91.0,41.7,29.74,SSE,158,6.0,6.0,18,0.00,,,0.00,VWS V14.01,2013-07-12 21:46:00,
2013-07-12 16:48:00,91.2,41.8,29.74,SW,225,10.7,10.7,18,0.00,,,0.00,VWS V14.01,2013-07-12 21:48:00,
2013-07-12 16:50:00,91.0,41.7,29.74,SSE,158,12.8,12.8,18,0.00,,,0.00,VWS V14.01,2013-07-12 21:50:00,
2013-07-12 16:52:00,91.2,41.8,29.74,NNW,338,8.1,8.1,18,0.00,,,0.00,VWS V14.01,2013-07-12 21:52:00,
2013-07-12 16:53:00,91.2,41.8,29.74,SSE,158,10.7,10.7,18,0.00,,,0.00,VWS V14.01,2013-07-12 21:53:00,
2013-07-12 16:54:00,91.2,41.8,29.74,South,180,6.0,6.0,18,0.00,,,0.00,VWS V14.01,2013-07-12 21:54:00,
2013-07-12 16:56:00,90.9,41.5,29.74,North,0,10.1,11.9,18,0.00,,,0.00,VWS V14.01,2013-07-12 21:56:00,
2013-07-12 16:58:00,90.9,41.5,29.74,SW,225,12.8,12.8,18,0.00,,,0.00,VWS V14.01,2013-07-12 21:58:00,
2013-07-12 16:59:00,91.0,41.7,29.74,SW,225,12.8,12.8,18,0.00,,,0.00,VWS V14.01,2013-07-12 21:59:00,
2013-07-12 17:00:00,91.0,41.7,29.74,SW,225,12.8,12.8,18,0.00,,,0.00,VWS V14.01,2013-07-12 22:00:00,
2013-07-12 17:02:00,91.0,41.7,29.74,SW,225,12.8,12.8,18,0.00,,,0.00,VWS V14.01,2013-07-12 22:02:00,
2013-07-12 17:04:00,91.2,41.8,29.74,SW,225,12.8,12.8,18,0.00,,,0.00,VWS V14.01,2013-07-12 22:04:00,
2013-07-12 17:06:00,91.2,41.8,29.74,SSW,202,8.7,8.7,18,0.00,,,0.00,VWS V14.01,2013-07-12 22:06:00,
2013-07-12 17:08:00,91.0,41.7,29.74,WSW,248,8.7,8.7,18,0.00,,,0.00,VWS V14.01,2013-07-12 22:08:00,
2013-07-12 17:09:00,91.0,41.7,29.74,WNW,292,9.4,9.4,18,0.00,,,0.00,VWS V14.01,2013-07-12 22:09:00,
2013-07-12 17:10:00,91.2,41.8,29.74,ENE,68,10.1,10.1,18,0.00,,,0.00,VWS V14.01,2013-07-12 22:10:00,
2013-07-12 17:12:00,90.9,41.5,29.74,ENE,68,10.1,10.1,18,0.00,,,0.00,VWS V14.01,2013-07-12 22:12:00,
2013-07-12 17:14:00,90.9,41.5,29.74,SSW,202,14.1,14.1,18,0.00,,,0.00,VWS V14.01,2013-07-12 22:14:00,
2013-07-12 17:16:00,90.7,41.4,29.74,SW,225,7.4,7.4,18,0.00,,,0.00,VWS V14.01,2013-07-12 22:16:00,
2013-07-12 17:18:00,90.7,41.4,29.74,SE,135,7.4,7.4,18,0.00,,,0.00,VWS V14.01,2013-07-12 22:18:00,
2013-07-12 17:19:00,90.7,41.4,29.74,SE,135,7.4,7.4,18,0.00,,,0.00,VWS V14.01,2013-07-12 22:19:00,
2013-07-12 17:20:00,90.7,41.4,29.74,South,180,16.1,16.1,18,0.00,,,0.00,VWS V14.01,2013-07-12 22:20:00,
2013-07-12 17:22:00,90.1,41.0,29.74,SSW,202,9.4,9.4,18,0.00,,,0.00,VWS V14.01,2013-07-12 22:22:00,
2013-07-12 17:24:00,90.1,41.0,29.74,South,180,3.4,7.2,18,0.00,,,0.00,VWS V14.01,2013-07-12 22:24:00,
2013-07-12 17:26:00,89.4,40.4,29.74,SSW,202,8.1,8.1,18,0.00,,,0.00,VWS V14.01,2013-07-12 22:26:00,
2013-07-12 17:28:00,89.2,41.6,29.74,SSW,202,10.1,10.1,19,0.00,,,0.00,VWS V14.01,2013-07-12 22:28:00,
2013-07-12 17:29:00,89.2,41.6,29.74,SSW,202,10.1,10.1,19,0.00,,,0.00,VWS V14.01,2013-07-12 22:29:00,
2013-07-12 17:30:00,89.2,40.2,29.74,SSW,202,12.8,12.8,18,0.00,,,0.00,VWS V14.01,2013-07-12 22:30:00,
2013-07-12 17:32:00,89.4,40.4,29.74,South,180,12.1,12.1,18,0.00,,,0.00,VWS V14.01,2013-07-12 22:32:00,
2013-07-12 17:34:00,89.2,41.6,29.74,ENE,68,8.7,8.7,19,0.00,,,0.00,VWS V14.01,2013-07-12 22:34:00,
2013-07-12 17:36:00,89.4,41.8,29.74,SSE,158,4.7,4.7,19,0.00,,,0.00,VWS V14.01,2013-07-12 22:36:00,
2013-07-12 17:38:00,89.6,40.5,29.74,SSW,202,22.8,22.8,18,0.00,,,0.00,VWS V14.01,2013-07-12 22:38:00,
2013-07-12 17:39:00,89.6,40.5,29.74,SSW,202,22.8,22.8,18,0.00,,,0.00,VWS V14.01,2013-07-12 22:39:00,
2013-07-12 17:40:00,89.4,41.8,29.74,SW,225,8.1,8.1,19,0.00,,,0.00,VWS V14.01,2013-07-12 22:40:00,
2013-07-12 17:42:00,89.4,41.8,29.74,SSW,202,8.7,8.7,19,0.00,,,0.00,VWS V14.01,2013-07-12 22:42:00,
2013-07-12 17:44:00,89.4,41.8,29.74,SSW,202,4.0,4.0,19,0.00,,,0.00,VWS V14.01,2013-07-12 22:44:00,
2013-07-12 17:46:00,89.4,41.8,29.74,WSW,248,10.1,10.1,19,0.00,,,0.00,VWS V14.01,2013-07-12 22:46:00,
2013-07-12 17:48:00,89.6,40.5,29.74,WSW,248,10.1,10.1,18,0.00,,,0.00,VWS V14.01,2013-07-12 22:48:00,
2013-07-12 17:49:00,89.6,40.5,29.74,WSW,248,10.1,10.1,18,0.00,,,0.00,VWS V14.01,2013-07-12 22:49:00,
2013-07-12 17:50:00,89.6,40.5,29.74,South,180,6.0,6.0,18,0.00,,,0.00,VWS V14.01,2013-07-12 22:50:00,
2013-07-12 17:52:00,89.4,41.8,29.74,SE,135,12.8,12.8,19,0.00,,,0.00,VWS V14.01,2013-07-12 22:52:00,
2013-07-12 17:54:00,89.2,41.6,29.74,WNW,292,12.1,12.1,19,0.00,,,0.00,VWS V14.01,2013-07-12 22:54:00,
2013-07-12 17:56:00,89.2,41.6,29.74,SSW,202,16.8,16.8,19,0.00,,,0.00,VWS V14.01,2013-07-12 22:56:00,
2013-07-12 17:58:00,89.1,41.5,29.74,SSE,158,10.7,10.7,19,0.00,,,0.00,VWS V14.01,2013-07-12 22:58:00,
2013-07-12 17:59:00,89.1,41.5,29.71,SSE,158,10.7,10.7,19,0.00,,,0.00,VWS V14.01,2013-07-12 22:59:00,
2013-07-12 18:00:00,88.7,41.2,29.71,South,180,18.1,18.1,19,0.00,,,0.00,VWS V14.01,2013-07-12 23:00:00,
2013-07-12 18:02:00,88.3,40.9,29.71,NW,315,12.1,12.1,19,0.00,,,0.00,VWS V14.01,2013-07-12 23:02:00,
2013-07-12 18:04:00,88.2,40.8,29.71,SW,225,9.4,9.4,19,0.00,,,0.00,VWS V14.01,2013-07-12 23:04:00,
2013-07-12 18:06:00,87.8,40.5,29.71,SSW,202,8.7,8.7,19,0.00,,,0.00,VWS V14.01,2013-07-12 23:06:00,
2013-07-12 18:08:00,87.8,40.5,29.71,East,90,8.7,8.7,19,0.00,,,0.00,VWS V14.01,2013-07-12 23:08:00,
2013-07-12 18:09:00,87.6,40.3,29.71,SSW,202,8.7,8.7,19,0.00,,,0.00,VWS V14.01,2013-07-12 23:09:00,
2013-07-12 18:10:00,87.6,40.3,29.71,SSW,202,8.7,8.7,19,0.00,,,0.00,VWS V14.01,2013-07-12 23:10:00,
2013-07-12 18:12:00,87.6,40.3,29.71,WNW,292,14.8,14.8,19,0.00,,,0.00,VWS V14.01,2013-07-12 23:12:00,
2013-07-12 18:14:00,87.8,40.5,29.71,SW,225,7.4,7.4,19,0.00,,,0.00,VWS V14.01,2013-07-12 23:14:00,
2013-07-12 18:16:00,88.0,40.6,29.71,SE,135,8.7,8.7,19,0.00,,,0.00,VWS V14.01,2013-07-12 23:16:00,
2013-07-12 18:18:00,88.2,40.8,29.71,SE,135,8.7,8.7,19,0.00,,,0.00,VWS V14.01,2013-07-12 23:18:00,
2013-07-12 18:19:00,88.0,40.6,29.71,ESE,112,12.1,12.1,19,0.00,,,0.00,VWS V14.01,2013-07-12 23:19:00,
2013-07-12 18:20:00,87.6,40.3,29.71,South,180,8.1,8.1,19,0.00,,,0.00,VWS V14.01,2013-07-12 23:20:00,
2013-07-12 18:22:00,87.4,40.2,29.71,SSW,202,22.2,22.2,19,0.00,,,0.00,VWS V14.01,2013-07-12 23:22:00,
2013-07-12 18:24:00,87.6,40.3,29.71,SSW,202,8.1,8.1,19,0.00,,,0.00,VWS V14.01,2013-07-12 23:24:00,
2013-07-12 18:26:00,87.6,40.3,29.71,ESE,112,8.7,8.7,19,0.00,,,0.00,VWS V14.01,2013-07-12 23:26:00,
2013-07-12 18:28:00,87.4,40.2,29.71,SW,225,6.7,6.7,19,0.00,,,0.00,VWS V14.01,2013-07-12 23:28:00,
2013-07-12 18:29:00,87.4,40.2,29.71,WSW,248,8.7,8.7,19,0.00,,,0.00,VWS V14.01,2013-07-12 23:29:00,
2013-07-12 18:30:00,87.4,40.2,29.71,South,180,7.4,7.4,19,0.00,,,0.00,VWS V14.01,2013-07-12 23:30:00,
2013-07-12 18:32:00,87.4,40.2,29.71,SSW,202,4.7,4.7,19,0.00,,,0.00,VWS V14.01,2013-07-12 23:32:00,
2013-07-12 18:34:00,87.1,39.9,29.71,NNW,338,9.4,9.4,19,0.00,,,0.00,VWS V14.01,2013-07-12 23:34:00,
2013-07-12 18:36:00,86.7,39.6,29.71,SE,135,19.5,19.5,19,0.00,,,0.00,VWS V14.01,2013-07-12 23:36:00,
2013-07-12 18:38:00,86.5,39.4,29.71,ESE,112,4.7,4.7,19,0.00,,,0.00,VWS V14.01,2013-07-12 23:38:00,
2013-07-12 18:40:00,86.5,39.4,29.71,West,270,14.1,14.1,19,0.00,,,0.00,VWS V14.01,2013-07-12 23:40:00,
2013-07-12 18:42:00,86.7,39.6,29.71,SSW,202,10.1,10.1,19,0.00,,,0.00,VWS V14.01,2013-07-12 23:42:00,
2013-07-12 18:44:00,86.5,39.4,29.71,SSW,202,16.8,16.8,19,0.00,,,0.00,VWS V14.01,2013-07-12 23:44:00,
2013-07-12 18:45:00,86.5,39.4,29.71,SSW,202,16.1,16.1,19,0.00,,,0.00,VWS V14.01,2013-07-12 23:45:00,
2013-07-12 18:46:00,86.4,39.3,29.71,ESE,112,8.7,8.7,19,0.00,,,0.00,VWS V14.01,2013-07-12 23:46:00,
2013-07-12 18:48:00,86.2,39.1,29.71,SW,225,8.7,8.7,19,0.00,,,0.00,VWS V14.01,2013-07-12 23:48:00,
2013-07-12 18:50:00,86.0,39.0,29.71,SSE,158,14.8,14.8,19,0.00,,,0.00,VWS V14.01,2013-07-12 23:50:00,
2013-07-12 18:52:00,86.0,39.0,29.71,ENE,68,10.7,10.7,19,0.00,,,0.00,VWS V14.01,2013-07-12 23:52:00,
2013-07-12 18:54:00,86.0,39.0,29.71,ENE,68,10.7,10.7,19,0.00,,,0.00,VWS V14.01,2013-07-12 23:54:00,
2013-07-12 18:56:00,85.8,40.2,29.71,SSW,202,6.0,6.0,20,0.00,,,0.00,VWS V14.01,2013-07-12 23:56:00,
2013-07-12 18:58:00,85.6,40.0,29.71,SSE,158,3.4,4.7,20,0.00,,,0.00,VWS V14.01,2013-07-12 23:58:00,
2013-07-12 18:59:00,85.5,39.9,29.71,SSW,202,4.7,4.7,20,0.00,,,0.00,VWS V14.01,2013-07-12 23:59:00,
2013-07-12 19:00:00,85.3,39.7,29.71,WNW,292,2.7,2.7,20,0.00,,,0.00,VWS V14.01,2013-07-13 00:00:00,
2013-07-12 19:02:00,85.3,39.7,29.71,SSW,202,8.1,8.1,20,0.00,,,0.00,VWS V14.01,2013-07-13 00:02:00,
2013-07-12 19:04:00,85.1,39.6,29.71,SSW,202,4.7,4.7,20,0.00,,,0.00,VWS V14.01,2013-07-13 00:04:00,
2013-07-12 19:06:00,84.6,39.1,29.71,East,90,6.7,6.7,20,0.00,,,0.00,VWS V14.01,2013-07-13 00:06:00,
2013-07-12 19:08:00,84.4,39.0,29.71,East,90,8.7,8.7,20,0.00,,,0.00,VWS V14.01,2013-07-13 00:08:00,
2013-07-12 19:09:00,84.4,39.0,29.71,NW,315,6.0,6.0,20,0.00,,,0.00,VWS V14.01,2013-07-13 00:09:00,
2013-07-12 19:10:00,84.4,39.0,29.71,SSW,202,8.1,8.1,20,0.00,,,0.00,VWS V14.01,2013-07-13 00:10:00,
2013-07-12 19:12:00,84.4,39.0,29.71,SSE,158,8.1,8.1,20,0.00,,,0.00,VWS V14.01,2013-07-13 00:12:00,
2013-07-12 19:14:00,84.4,39.0,29.71,WSW,248,7.4,7.4,20,0.00,,,0.00,VWS V14.01,2013-07-13 00:14:00,
2013-07-12 19:15:00,84.4,39.0,29.71,WSW,248,7.4,7.4,20,0.00,,,0.00,VWS V14.01,2013-07-13 00:15:00,
2013-07-12 19:16:00,84.4,39.0,29.71,North,0,7.4,7.4,20,0.00,,,0.00,VWS V14.01,2013-07-13 00:16:00,
2013-07-12 19:18:00,84.2,38.8,29.71,South,180,4.7,4.7,20,0.00,,,0.00,VWS V14.01,2013-07-13 00:18:00,
2013-07-12 19:20:00,84.2,38.8,29.71,SSW,202,7.4,7.4,20,0.00,,,0.00,VWS V14.01,2013-07-13 00:20:00,
2013-07-12 19:22:00,83.8,39.8,29.71,South,180,6.0,6.0,21,0.00,,,0.00,VWS V14.01,2013-07-13 00:22:00,
2013-07-12 19:24:00,83.7,39.6,29.71,South,180,6.0,6.0,21,0.00,,,0.00,VWS V14.01,2013-07-13 00:24:00,
2013-07-12 19:25:00,83.7,39.6,29.71,South,180,6.0,6.0,21,0.00,,,0.00,VWS V14.01,2013-07-13 00:25:00,
2013-07-12 19:26:00,83.5,39.5,29.71,West,270,8.7,8.7,21,0.00,,,0.00,VWS V14.01,2013-07-13 00:26:00,
2013-07-12 19:28:00,83.1,39.2,29.71,NNW,338,10.1,10.1,21,0.00,,,0.00,VWS V14.01,2013-07-13 00:28:00,
2013-07-12 19:30:00,83.1,39.2,29.71,SE,135,8.7,8.7,21,0.00,,,0.00,VWS V14.01,2013-07-13 00:30:00,
2013-07-12 19:32:00,82.8,38.9,29.71,SSW,202,6.7,6.7,21,0.00,,,0.00,VWS V14.01,2013-07-13 00:32:00,
2013-07-12 19:34:00,82.6,38.7,29.71,SSE,158,6.7,6.7,21,0.00,,,0.00,VWS V14.01,2013-07-13 00:34:00,
2013-07-12 19:35:00,82.6,38.7,29.71,SSE,158,6.7,6.7,21,0.00,,,0.00,VWS V14.01,2013-07-13 00:35:00,
2013-07-12 19:36:00,82.6,38.7,29.71,SSW,202,12.1,12.1,21,0.00,,,0.00,VWS V14.01,2013-07-13 00:36:00,
2013-07-12 19:38:00,82.6,38.7,29.71,SSE,158,6.0,6.0,21,0.00,,,0.00,VWS V14.01,2013-07-13 00:38:00,
2013-07-12 19:40:00,82.6,38.7,29.71,ESE,112,6.0,6.0,21,0.00,,,0.00,VWS V14.01,2013-07-13 00:40:00,
2013-07-12 19:42:00,82.6,38.7,29.71,SSE,158,12.1,12.1,21,0.00,,,0.00,VWS V14.01,2013-07-13 00:42:00,
2013-07-12 19:44:00,82.4,38.6,29.71,SSE,158,12.1,12.1,21,0.00,,,0.00,VWS V14.01,2013-07-13 00:44:00,
2013-07-12 19:45:00,82.4,38.6,29.71,WNW,292,4.7,4.7,21,0.00,,,0.00,VWS V14.01,2013-07-13 00:45:00,
2013-07-12 19:46:00,82.2,39.6,29.71,SSW,202,7.4,7.4,22,0.00,,,0.00,VWS V14.01,2013-07-13 00:46:00,
2013-07-12 19:48:00,82.2,39.6,29.71,South,180,6.0,6.0,22,0.00,,,0.00,VWS V14.01,2013-07-13 00:48:00,
2013-07-12 19:50:00,82.0,39.5,29.71,SW,225,19.5,19.5,22,0.00,,,0.00,VWS V14.01,2013-07-13 00:50:00,
2013-07-12 19:52:00,82.0,39.5,29.71,SW,225,19.5,19.5,22,0.00,,,0.00,VWS V14.01,2013-07-13 00:52:00,
2013-07-12 19:54:00,81.9,39.3,29.71,South,180,4.0,6.5,22,0.00,,,0.00,VWS V14.01,2013-07-13 00:54:00,
2013-07-12 19:55:00,81.9,39.3,29.71,NNE,22,6.7,6.7,22,0.00,,,0.00,VWS V14.01,2013-07-13 00:55:00,
2013-07-12 19:56:00,81.9,39.3,29.71,NNE,22,6.7,6.7,22,0.00,,,0.00,VWS V14.01,2013-07-13 00:56:00,
2013-07-12 19:58:00,81.7,39.2,29.68,SW,225,9.4,9.4,22,0.00,,,0.00,VWS V14.01,2013-07-13 00:58:00,
2013-07-12 20:00:00,81.7,39.2,29.68,SW,225,9.4,9.4,22,0.00,,,0.00,VWS V14.01,2013-07-13 01:00:00,
2013-07-12 20:02:00,81.7,39.2,29.68,SW,225,9.4,9.4,22,0.00,,,0.00,VWS V14.01,2013-07-13 01:02:00,
2013-07-12 20:04:00,81.5,39.0,29.68,SW,225,9.4,9.4,22,0.00,,,0.00,VWS V14.01,2013-07-13 01:04:00,
2013-07-12 20:05:00,81.5,39.0,29.68,SW,225,9.4,9.4,22,0.00,,,0.00,VWS V14.01,2013-07-13 01:05:00,
2013-07-12 20:06:00,81.5,39.0,29.68,SW,225,9.4,9.4,22,0.00,,,0.00,VWS V14.01,2013-07-13 01:06:00,
2013-07-12 20:08:00,81.3,38.9,29.68,SW,225,9.4,9.4,22,0.00,,,0.00,VWS V14.01,2013-07-13 01:08:00,
2013-07-12 20:10:00,81.1,38.7,29.68,North,0,4.7,4.7,22,0.00,,,0.00,VWS V14.01,2013-07-13 01:10:00,
2013-07-12 20:11:00,81.1,38.7,29.68,North,0,4.7,4.7,22,0.00,,,0.00,VWS V14.01,2013-07-13 01:11:00,
2013-07-12 20:12:00,81.1,38.7,29.68,North,0,4.7,4.7,22,0.00,,,0.00,VWS V14.01,2013-07-13 01:12:00,
2013-07-12 20:14:00,81.1,39.9,29.71,North,0,4.7,4.7,23,0.00,,,0.00,VWS V14.01,2013-07-13 01:14:00,
2013-07-12 20:16:00,81.0,38.6,29.71,North,0,4.7,4.7,22,0.00,,,0.00,VWS V14.01,2013-07-13 01:16:00,
2013-07-12 20:18:00,80.8,39.6,29.71,North,0,4.7,4.7,23,0.00,,,0.00,VWS V14.01,2013-07-13 01:18:00,
2013-07-12 20:20:00,80.6,39.4,29.71,North,0,4.7,4.7,23,0.00,,,0.00,VWS V14.01,2013-07-13 01:20:00,
2013-07-12 20:21:00,80.6,39.4,29.71,North,0,4.7,4.7,23,0.00,,,0.00,VWS V14.01,2013-07-13 01:21:00,
2013-07-12 20:22:00,80.6,39.4,29.71,SE,135,8.1,8.1,23,0.00,,,0.00,VWS V14.01,2013-07-13 01:22:00,
2013-07-12 20:24:00,80.4,39.3,29.71,South,180,10.1,10.1,23,0.00,,,0.00,VWS V14.01,2013-07-13 01:24:00,
2013-07-12 20:26:00,80.4,39.3,29.71,South,180,10.1,10.1,23,0.00,,,0.00,VWS V14.01,2013-07-13 01:26:00,
2013-07-12 20:28:00,80.1,39.0,29.71,SE,135,6.0,6.0,23,0.00,,,0.00,VWS V14.01,2013-07-13 01:28:00,
2013-07-12 20:30:00,80.1,39.0,29.71,SE,135,6.0,6.0,23,0.00,,,0.00,VWS V14.01,2013-07-13 01:30:00,
2013-07-12 20:31:00,80.1,39.0,29.71,SE,135,6.0,6.0,23,0.00,,,0.00,VWS V14.01,2013-07-13 01:31:00,
2013-07-12 20:32:00,79.9,39.9,29.71,SE,135,6.0,6.0,24,0.00,,,0.00,VWS V14.01,2013-07-13 01:32:00,
2013-07-12 20:34:00,79.7,39.8,29.71,SE,135,6.0,6.0,24,0.00,,,0.00,VWS V14.01,2013-07-13 01:34:00,
2013-07-12 20:36:00,79.7,39.8,29.71,North,0,9.4,9.4,24,0.00,,,0.00,VWS V14.01,2013-07-13 01:36:00,
2013-07-12 20:38:00,79.7,39.8,29.71,South,180,3.4,5.8,24,0.00,,,0.00,VWS V14.01,2013-07-13 01:38:00,
2013-07-12 20:40:00,79.7,39.8,29.71,SSE,158,10.7,10.7,24,0.00,,,0.00,VWS V14.01,2013-07-13 01:40:00,
2013-07-12 20:41:00,79.7,39.8,29.71,South,180,7.4,7.4,24,0.00,,,0.00,VWS V14.01,2013-07-13 01:41:00,
2013-07-12 20:42:00,79.7,39.8,29.71,WSW,248,4.7,5.6,24,0.00,,,0.00,VWS V14.01,2013-07-13 01:42:00,
2013-07-12 20:44:00,79.5,39.6,29.74,SSE,158,8.7,8.7,24,0.00,,,0.00,VWS V14.01,2013-07-13 01:44:00,
2013-07-12 20:46:00,79.5,39.6,29.74,NW,315,7.4,7.4,24,0.00,,,0.00,VWS V14.01,2013-07-13 01:46:00,
2013-07-12 20:48:00,79.3,39.5,29.74,SE,135,3.4,3.4,24,0.00,,,0.00,VWS V14.01,2013-07-13 01:48:00,
2013-07-12 20:50:00,79.3,39.5,29.74,SE,135,8.7,8.7,24,0.00,,,0.00,VWS V14.01,2013-07-13 01:50:00,
2013-07-12 20:51:00,79.3,39.5,29.74,SE,135,8.7,8.7,24,0.00,,,0.00,VWS V14.01,2013-07-13 01:51:00,
2013-07-12 20:52:00,79.2,39.3,29.74,SSE,158,8.1,8.1,24,0.00,,,0.00,VWS V14.01,2013-07-13 01:52:00,
2013-07-12 20:54:00,79.2,39.3,29.74,SSW,202,10.1,10.1,24,0.00,,,0.00,VWS V14.01,2013-07-13 01:54:00,
2013-07-12 20:56:00,79.2,39.3,29.74,SSW,202,4.0,4.0,24,0.00,,,0.00,VWS V14.01,2013-07-13 01:56:00,
2013-07-12 20:58:00,79.2,39.3,29.71,NNE,22,7.4,7.4,24,0.00,,,0.00,VWS V14.01,2013-07-13 01:58:00,
2013-07-12 21:00:00,79.2,39.3,29.71,SSE,158,8.7,8.7,24,0.00,,,0.00,VWS V14.01,2013-07-13 02:00:00,
2013-07-12 21:01:00,79.2,39.3,29.71,SSE,158,16.1,16.1,24,0.00,,,0.00,VWS V14.01,2013-07-13 02:01:00,
2013-07-12 21:02:00,79.2,39.3,29.71,SSW,202,16.1,16.1,24,0.00,,,0.00,VWS V14.01,2013-07-13 02:02:00,
2013-07-12 21:04:00,79.2,39.3,29.71,South,180,8.1,8.1,24,0.00,,,0.00,VWS V14.01,2013-07-13 02:04:00,
2013-07-12 21:06:00,79.0,39.2,29.71,SSW,202,10.1,10.1,24,0.00,,,0.00,VWS V14.01,2013-07-13 02:06:00,
2013-07-12 21:08:00,78.8,39.0,29.71,SSE,158,3.4,3.4,24,0.00,,,0.00,VWS V14.01,2013-07-13 02:08:00,
2013-07-12 21:10:00,78.8,39.0,29.71,SSW,202,8.7,8.7,24,0.00,,,0.00,VWS V14.01,2013-07-13 02:10:00,
2013-07-12 21:11:00,78.8,39.0,29.71,South,180,4.7,4.7,24,0.00,,,0.00,VWS V14.01,2013-07-13 02:11:00,
2013-07-12 21:12:00,78.8,39.0,29.71,SSE,158,8.1,8.1,24,0.00,,,0.00,VWS V14.01,2013-07-13 02:12:00,
2013-07-12 21:14:00,78.6,39.9,29.71,SSE,158,4.0,4.0,25,0.00,,,0.00,VWS V14.01,2013-07-13 02:14:00,
2013-07-12 21:16:00,78.6,39.9,29.71,SSW,202,7.4,7.4,25,0.00,,,0.00,VWS V14.01,2013-07-13 02:16:00,
2013-07-12 21:18:00,78.4,39.7,29.71,SSW,202,8.1,8.1,25,0.00,,,0.00,VWS V14.01,2013-07-13 02:18:00,
2013-07-12 21:20:00,78.4,39.7,29.71,WSW,248,8.7,8.7,25,0.00,,,0.00,VWS V14.01,2013-07-13 02:20:00,
2013-07-12 21:21:00,78.4,39.7,29.71,South,180,8.7,8.7,25,0.00,,,0.00,VWS V14.01,2013-07-13 02:21:00,
2013-07-12 21:22:00,78.4,39.7,29.71,SSW,202,8.1,8.1,25,0.00,,,0.00,VWS V14.01,2013-07-13 02:22:00,
2013-07-12 21:24:00,78.3,39.6,29.71,SSE,158,7.4,7.4,25,0.00,,,0.00,VWS V14.01,2013-07-13 02:24:00,
2013-07-12 21:26:00,78.3,39.6,29.71,SSW,202,6.7,6.7,25,0.00,,,0.00,VWS V14.01,2013-07-13 02:26:00,
2013-07-12 21:28:00,78.3,39.6,29.71,WSW,248,6.0,6.0,25,0.00,,,0.00,VWS V14.01,2013-07-13 02:28:00,
2013-07-12 21:30:00,78.1,39.4,29.71,NW,315,3.4,4.9,25,0.00,,,0.00,VWS V14.01,2013-07-13 02:30:00,
2013-07-12 21:31:00,78.1,39.4,29.71,South,180,6.0,6.0,25,0.00,,,0.00,VWS V14.01,2013-07-13 02:31:00,
2013-07-12 21:32:00,78.1,39.4,29.71,SSE,158,10.1,10.1,25,0.00,,,0.00,VWS V14.01,2013-07-13 02:32:00,
2013-07-12 21:34:00,78.1,39.4,29.71,SE,135,6.0,6.0,25,0.00,,,0.00,VWS V14.01,2013-07-13 02:34:00,
2013-07-12 21:36:00,78.1,39.4,29.71,South,180,16.8,16.8,25,0.00,,,0.00,VWS V14.01,2013-07-13 02:36:00,
2013-07-12 21:38:00,78.3,39.6,29.71,WNW,292,8.1,8.1,25,0.00,,,0.00,VWS V14.01,2013-07-13 02:38:00,
2013-07-12 21:40:00,78.3,39.6,29.71,SSW,202,9.4,9.4,25,0.00,,,0.00,VWS V14.01,2013-07-13 02:40:00,
2013-07-12 21:42:00,78.1,39.4,29.71,South,180,10.1,10.1,25,0.00,,,0.00,VWS V14.01,2013-07-13 02:42:00,
2013-07-12 21:44:00,78.1,39.4,29.71,SSW,202,8.1,8.1,25,0.00,,,0.00,VWS V14.01,2013-07-13 02:44:00,
2013-07-12 21:46:00,78.1,39.4,29.71,SSW,202,7.4,7.4,25,0.00,,,0.00,VWS V14.01,2013-07-13 02:46:00,
2013-07-12 21:47:00,78.1,39.4,29.71,South,180,7.4,7.4,25,0.00,,,0.00,VWS V14.01,2013-07-13 02:47:00,
2013-07-12 21:48:00,77.9,39.3,29.71,SE,135,6.0,6.0,25,0.00,,,0.00,VWS V14.01,2013-07-13 02:48:00,
2013-07-12 21:50:00,77.9,39.3,29.71,SSW,202,4.7,4.7,25,0.00,,,0.00,VWS V14.01,2013-07-13 02:50:00,
2013-07-12 21:52:00,77.9,39.3,29.71,SW,225,8.1,8.1,25,0.00,,,0.00,VWS V14.01,2013-07-13 02:52:00,
2013-07-12 21:54:00,77.9,39.3,29.71,WSW,248,10.1,10.1,25,0.00,,,0.00,VWS V14.01,2013-07-13 02:54:00,
2013-07-12 21:56:00,77.9,39.3,29.71,SW,225,4.7,4.7,25,0.00,,,0.00,VWS V14.01,2013-07-13 02:56:00,
2013-07-12 21:57:00,77.9,39.3,29.71,SW,225,4.7,4.7,25,0.00,,,0.00,VWS V14.01,2013-07-13 02:57:00,
2013-07-12 21:58:00,77.7,39.1,29.74,North,0,4.0,4.0,25,0.00,,,0.00,VWS V14.01,2013-07-13 02:58:00,
2013-07-12 22:00:00,77.7,40.1,29.74,South,180,11.4,11.4,26,0.00,,,0.00,VWS V14.01,2013-07-13 03:00:00,
2013-07-12 22:02:00,77.5,40.0,29.74,SSW,202,3.4,4.3,26,0.00,,,0.00,VWS V14.01,2013-07-13 03:02:00,
2013-07-12 22:04:00,77.7,40.1,29.74,SSW,202,14.8,14.8,26,0.00,,,0.00,VWS V14.01,2013-07-13 03:04:00,
2013-07-12 22:06:00,77.7,40.1,29.74,West,270,8.1,8.1,26,0.00,,,0.00,VWS V14.01,2013-07-13 03:06:00,
2013-07-12 22:07:00,77.7,40.1,29.74,SSE,158,8.7,8.7,26,0.00,,,0.00,VWS V14.01,2013-07-13 03:07:00,
2013-07-12 22:08:00,77.7,40.1,29.74,SSW,202,4.0,4.0,26,0.00,,,0.00,VWS V14.01,2013-07-13 03:08:00,
2013-07-12 22:10:00,77.7,40.1,29.74,SW,225,6.0,6.0,26,0.00,,,0.00,VWS V14.01,2013-07-13 03:10:00,
2013-07-12 22:12:00,77.7,40.1,29.74,SSW,202,8.7,8.7,26,0.00,,,0.00,VWS V14.01,2013-07-13 03:12:00,
2013-07-12 22:14:00,77.7,40.1,29.71,NW,315,11.4,11.4,26,0.00,,,0.00,VWS V14.01,2013-07-13 03:14:00,
2013-07-12 22:16:00,77.7,40.1,29.71,WSW,248,12.8,12.8,26,0.00,,,0.00,VWS V14.01,2013-07-13 03:16:00,
2013-07-12 22:17:00,77.7,40.1,29.71,WSW,248,12.8,12.8,26,0.00,,,0.00,VWS V14.01,2013-07-13 03:17:00,
2013-07-12 22:18:00,77.7,40.1,29.71,South,180,7.4,7.4,26,0.00,,,0.00,VWS V14.01,2013-07-13 03:18:00,
2013-07-12 22:20:00,77.5,40.0,29.71,South,180,3.4,3.4,26,0.00,,,0.00,VWS V14.01,2013-07-13 03:20:00,
2013-07-12 22:22:00,77.5,40.0,29.71,South,180,3.4,3.4,26,0.00,,,0.00,VWS V14.01,2013-07-13 03:22:00,
2013-07-12 22:24:00,77.5,40.0,29.71,South,180,3.4,3.4,26,0.00,,,0.00,VWS V14.01,2013-07-13 03:24:00,
2013-07-12 22:26:00,77.4,39.8,29.71,South,180,7.4,7.4,26,0.00,,,0.00,VWS V14.01,2013-07-13 03:26:00,
2013-07-12 22:27:00,77.4,39.8,29.71,South,180,7.4,7.4,26,0.00,,,0.00,VWS V14.01,2013-07-13 03:27:00,
2013-07-12 22:28:00,77.4,39.8,29.74,South,180,7.4,7.4,26,0.00,,,0.00,VWS V14.01,2013-07-13 03:28:00,
2013-07-12 22:30:00,77.4,39.8,29.74,South,180,7.4,7.4,26,0.00,,,0.00,VWS V14.01,2013-07-13 03:30:00,
2013-07-12 22:32:00,77.2,39.7,29.74,West,270,6.0,6.0,26,0.00,,,0.00,VWS V14.01,2013-07-13 03:32:00,
2013-07-12 22:34:00,77.2,39.7,29.74,West,270,4.0,4.0,26,0.00,,,0.00,VWS V14.01,2013-07-13 03:34:00,
2013-07-12 22:36:00,77.2,39.7,29.74,West,270,4.0,4.0,26,0.00,,,0.00,VWS V14.01,2013-07-13 03:36:00,
2013-07-12 22:37:00,77.2,39.7,29.74,West,270,4.0,4.0,26,0.00,,,0.00,VWS V14.01,2013-07-13 03:37:00,
2013-07-12 22:38:00,77.2,39.7,29.74,West,270,4.0,4.0,26,0.00,,,0.00,VWS V14.01,2013-07-13 03:38:00,
2013-07-12 22:40:00,77.2,39.7,29.74,NE,45,10.7,10.7,26,0.00,,,0.00,VWS V14.01,2013-07-13 03:40:00,
2013-07-12 22:42:00,77.4,39.8,29.74,NE,45,10.7,10.7,26,0.00,,,0.00,VWS V14.01,2013-07-13 03:42:00,
2013-07-12 22:44:00,77.4,39.8,29.76,SSW,202,6.0,6.0,26,0.00,,,0.00,VWS V14.01,2013-07-13 03:44:00,
2013-07-12 22:46:00,77.4,39.8,29.76,South,180,9.4,9.4,26,0.00,,,0.00,VWS V14.01,2013-07-13 03:46:00,
2013-07-12 22:47:00,77.2,39.7,29.76,South,180,9.4,9.4,26,0.00,,,0.00,VWS V14.01,2013-07-13 03:47:00,
2013-07-12 22:48:00,77.2,39.7,29.76,South,180,9.4,9.4,26,0.00,,,0.00,VWS V14.01,2013-07-13 03:48:00,
2013-07-12 22:50:00,77.2,39.7,29.76,SE,135,6.7,6.7,26,0.00,,,0.00,VWS V14.01,2013-07-13 03:50:00,
2013-07-12 22:52:00,77.2,39.7,29.76,SE,135,6.7,6.7,26,0.00,,,0.00,VWS V14.01,2013-07-13 03:52:00,
2013-07-12 22:54:00,77.4,39.8,29.76,SE,135,6.7,6.7,26,0.00,,,0.00,VWS V14.01,2013-07-13 03:54:00,
2013-07-12 22:56:00,77.4,39.8,29.76,SW,225,23.5,23.5,26,0.00,,,0.00,VWS V14.01,2013-07-13 03:56:00,
2013-07-12 22:57:00,77.4,39.8,29.76,SSE,158,4.0,7.8,26,0.00,,,0.00,VWS V14.01,2013-07-13 03:57:00,
2013-07-12 22:58:00,77.4,39.8,29.76,South,180,12.1,12.1,26,0.00,,,0.00,VWS V14.01,2013-07-13 03:58:00,
2013-07-12 23:00:00,77.4,39.8,29.76,South,180,12.1,12.1,26,0.00,,,0.00,VWS V14.01,2013-07-13 04:00:00,
2013-07-12 23:01:00,77.4,39.8,29.76,South,180,12.1,12.1,26,0.00,,,0.00,VWS V14.01,2013-07-13 04:01:00,
2013-07-12 23:02:00,77.4,39.8,29.76,SSW,202,4.7,4.7,26,0.00,,,0.00,VWS V14.01,2013-07-13 04:02:00,
2013-07-12 23:04:00,77.4,39.8,29.76,South,180,8.1,8.1,26,0.00,,,0.00,VWS V14.01,2013-07-13 04:04:00,
2013-07-12 23:06:00,77.4,39.8,29.76,South,180,8.1,8.1,26,0.00,,,0.00,VWS V14.01,2013-07-13 04:06:00,
2013-07-12 23:07:00,77.4,39.8,29.76,South,180,8.1,8.1,26,0.00,,,0.00,VWS V14.01,2013-07-13 04:07:00,
2013-07-12 23:08:00,77.4,39.8,29.76,South,180,8.1,8.1,26,0.00,,,0.00,VWS V14.01,2013-07-13 04:08:00,
2013-07-12 23:10:00,77.4,39.8,29.76,NW,315,8.1,8.1,26,0.00,,,0.00,VWS V14.01,2013-07-13 04:10:00,
2013-07-12 23:12:00,77.4,39.8,29.76,SSW,202,11.4,11.4,26,0.00,,,0.00,VWS V14.01,2013-07-13 04:12:00,
2013-07-12 23:14:00,77.4,39.8,29.76,South,180,7.4,7.4,26,0.00,,,0.00,VWS V14.01,2013-07-13 04:14:00,
2013-07-12 23:16:00,77.2,39.7,29.76,SSW,202,10.1,10.1,26,0.00,,,0.00,VWS V14.01,2013-07-13 04:16:00,
2013-07-12 23:17:00,77.2,39.7,29.76,SSW,202,10.1,10.1,26,0.00,,,0.00,VWS V14.01,2013-07-13 04:17:00,
2013-07-12 23:18:00,77.2,39.7,29.76,South,180,7.4,7.4,26,0.00,,,0.00,VWS V14.01,2013-07-13 04:18:00,
2013-07-12 23:20:00,77.2,39.7,29.76,SW,225,3.4,3.6,26,0.00,,,0.00,VWS V14.01,2013-07-13 04:20:00,
2013-07-12 23:22:00,77.2,39.7,29.76,SSW,202,9.4,9.4,26,0.00,,,0.00,VWS V14.01,2013-07-13 04:22:00,
2013-07-12 23:24:00,77.2,39.7,29.76,SW,225,6.7,6.7,26,0.00,,,0.00,VWS V14.01,2013-07-13 04:24:00,
2013-07-12 23:26:00,77.2,39.7,29.76,South,180,19.5,19.5,26,0.00,,,0.00,VWS V14.01,2013-07-13 04:26:00,
2013-07-12 23:27:00,77.2,39.7,29.76,South,180,19.5,19.5,26,0.00,,,0.00,VWS V14.01,2013-07-13 04:27:00,
2013-07-12 23:28:00,77.2,39.7,29.76,SE,135,6.0,6.5,26,0.00,,,0.00,VWS V14.01,2013-07-13 04:28:00,
2013-07-12 23:30:00,77.0,39.5,29.76,SSW,202,4.7,5.4,26,0.00,,,0.00,VWS V14.01,2013-07-13 04:30:00,
2013-07-12 23:32:00,77.0,39.5,29.76,SSE,158,8.1,8.1,26,0.00,,,0.00,VWS V14.01,2013-07-13 04:32:00,
2013-07-12 23:34:00,77.0,39.5,29.76,SSE,158,7.4,7.4,26,0.00,,,0.00,VWS V14.01,2013-07-13 04:34:00,
2013-07-12 23:36:00,76.8,40.3,29.76,ESE,112,6.7,6.7,27,0.00,,,0.00,VWS V14.01,2013-07-13 04:36:00,
2013-07-12 23:37:00,76.8,40.3,29.76,ESE,112,6.7,6.7,27,0.00,,,0.00,VWS V14.01,2013-07-13 04:37:00,
2013-07-12 23:38:00,76.8,40.3,29.76,NE,45,8.1,8.1,27,0.00,,,0.00,VWS V14.01,2013-07-13 04:38:00,
2013-07-12 23:40:00,76.8,40.3,29.76,South,180,7.4,7.4,27,0.00,,,0.00,VWS V14.01,2013-07-13 04:40:00,
2013-07-12 23:42:00,76.8,40.3,29.76,South,180,7.4,7.4,27,0.00,,,0.00,VWS V14.01,2013-07-13 04:42:00,
2013-07-12 23:44:00,76.8,40.3,29.74,SW,225,9.4,9.4,27,0.00,,,0.00,VWS V14.01,2013-07-13 04:44:00,
2013-07-12 23:46:00,76.8,40.3,29.74,South,180,8.1,8.1,27,0.00,,,0.00,VWS V14.01,2013-07-13 04:46:00,
2013-07-12 23:47:00,76.8,40.3,29.74,South,180,8.1,8.1,27,0.00,,,0.00,VWS V14.01,2013-07-13 04:47:00,
2013-07-12 23:48:00,76.8,40.3,29.74,NW,315,10.7,10.7,27,0.00,,,0.00,VWS V14.01,2013-07-13 04:48:00,
2013-07-12 23:50:00,76.8,40.3,29.74,South,180,8.7,8.7,27,0.00,,,0.00,VWS V14.01,2013-07-13 04:50:00,
2013-07-12 23:52:00,76.8,40.3,29.74,WNW,292,6.7,6.7,27,0.00,,,0.00,VWS V14.01,2013-07-13 04:52:00,
2013-07-12 23:54:00,76.8,40.3,29.74,SSW,202,4.0,4.7,27,0.00,,,0.00,VWS V14.01,2013-07-13 04:54:00,
2013-07-12 23:56:00,76.8,40.3,29.74,SSE,158,12.8,12.8,27,0.00,,,0.00,VWS V14.01,2013-07-13 04:56:00,
2013-07-12 23:57:00,76.8,40.3,29.74,SSE,158,12.8,12.8,27,0.00,,,0.00,VWS V14.01,2013-07-13 04:57:00,
2013-07-12 23:58:00,76.8,40.3,29.80,SW,225,9.4,9.4,27,0.00,,,0.00,VWS V14.01,2013-07-13 04:58:00,